     2              OBSERVATION DATA    GPS                 RINEX VERSION / TYPE
teqc 2002Apr3 20041109 01:33:13UTC                          PGM / RUN BY / DATE
                                                            COMMENT
L2: 1 -> 1; 5 -> 5; 60 -> 9                                 COMMENT
L2: 1 -> 1; 5 -> 5; 60 -> 9                                 COMMENT
L2: 1 -> 1; 5 -> 5; 60 -> 9                                 COMMENT
L2: 1 -> 1; 5 -> 5; 60 -> 9                                 COMMENT
L2: 1 -> 1; 5 -> 5; 60 -> 9                                 COMMENT
Original Marker Name: 0467                                  COMMENT
Campaign Name: CSRC/Caltrans post-San Simeon                COMMENT
4-Character Station Name: Y707                              COMMENT
6-Character Antenna Code: TRZEPH                            COMMENT
Vertical Measurement Point: BPA                             COMMENT
Vertical Offset to Rinex Ref. Point: 0.0000                 COMMENT
Radial Measurement Point: RRP                               COMMENT
Radial Offset to Rinex Ref. Point: 0.0000                   COMMENT
Antenna Height from Field Measurement: 1.5000 m             COMMENT
Original XYZ: -2654060.9814 -4464466.0869 3690045.7785      COMMENT
New XYZ position is based on association with SCEC monument COMMENT
E1F1B1O2+0011. Position of that monument is believed to be  COMMENT
valid to within 1 m horizontally; vertical accuracy         COMMENT
should be no worse than 3-times this value.                 COMMENT
                                                            COMMENT
Revised Rinex header created by UCSD GPS archive for        COMMENT
GSAC on 11-Feb-2005 (2005:042) 22:03:31 GMT                 COMMENT
For assistance contact dagnew@ucsd.edu                      COMMENT
or anderson@python.ucsd.edu                                 COMMENT
                                                            COMMENT
Y707 RESET 1968                                             MARKER NAME
0467                                                        MARKER NUMBER
R. Hawkens CALIF DEPT TRANSPORTATION DISTRICT 5             OBSERVER / AGENCY
0440100467 TRIMBLE 5700 NP 2.01 / SP 0.00                   REC # / TYPE / VERS
12234994 TRM41249.00                                        ANT # / TYPE
 -2654064.0000 -4464470.0000  3690052.0000                  APPROX POSITION XYZ
        1.5000        0.0000        0.0000                  ANTENNA: DELTA H/E/N
     1     1     0                                          WAVELENGTH FACT L1/2
     7    C1    L1    L2    P1    P2    S1    S2            # / TYPES OF OBSERV
     0                                                      INTERVAL
  2004     7    28    19    21   30.000000                  TIME OF FIRST OBS
  2004     7    28    20    15   15.000000                  TIME OF LAST OBS
                                                            END OF HEADER
 04  7 28 19 21 30.0000000  0  6G 1G11G14G20G23G25
  21844545.7534    -451907.54349   -342335.50447                  21844545.3284
        46.5004         34.7504
  21269734.5794     -36364.12949    -31531.17647                  21269731.7574
        51.0004         38.5004
  23140264.5054     395488.13349    290411.36347                  23140262.8834
        42.5004         28.0004
  22493110.5674    -658078.32449   -494561.84047                  22493108.2434
        49.5004         36.0004
  23177236.1624    -597571.11749   -449857.05147                  23177233.0784
        47.5004         30.2504
  20503938.2374     -53116.38349    -44014.08648                  20503935.6284
        51.5004         40.5004
 04  7 28 19 21 45.0000000  0  6G 1G11G14G20G23G25
  21837978.5264    -486419.66449   -369228.04747                  21837978.2464
        45.0004         35.0004
  21269271.1334     -38799.68749    -33429.01247                  21269268.8984
        51.5004         38.0004
  23145888.8074     425043.78949    313441.71147                  23145886.7884
        43.5004         27.7504
  22483509.7114    -708530.84449   -533875.47347                  22483508.0094
        49.0004         36.2504
  23168526.4474    -643340.98849   -485521.85247                  23168523.7734
        46.5004         29.0004
  20503227.3584     -56851.03149    -46924.19948                  20503224.8334
        48.5004         40.7504
 04  7 28 19 22  0.0000000  0  6G 1G11G14G20G23G25
  21831412.0154    -520924.95749   -396115.26647                  21831411.5694
        48.5004         35.2504
  21268823.9594     -41151.07049    -35261.26647                  21268821.4114
        51.5004         39.0004
  23151504.7174     454555.11749    336437.55547                  23151502.2014
        44.0004         26.7504
  22473904.0844    -759009.67249   -573209.60547                  22473902.0154
        48.7504         36.5004
  23159815.8834    -689120.03549   -521193.76647                  23159812.3784
        47.2504         29.7504
  20502532.0404     -60505.41049    -49771.76648                  20502529.4754
        51.7504         40.5004
 04  7 28 19 22 15.0000000  0  6G 1G11G14G20G23G25
  21824847.6804    -555422.93049   -422996.77747                  21824846.5434
        47.0004         35.0004
  21268392.0514     -43418.04349    -37027.73847                  21268389.6874
        51.0004         38.2504
  23157112.4374     484022.52749    359399.11347                  23157109.6074
        43.7504         27.0004
  22464293.3684    -809513.94949   -612563.56247                  22464291.1784
        47.0004         37.0004
  23151102.7864    -734907.66849   -556872.40247                  23151098.7474
        48.0004         30.0004
  20501851.9214     -64078.94149    -52556.33648                  20501849.6164
        50.5004         41.0004
 04  7 28 19 22 30.0000000  0  6G 1G11G14G20G23G25
  21818283.9444    -589912.62949   -449871.83247                  21818282.7324
        46.7504         34.5004
  21267977.4044     -45599.41849    -38727.52347                  21267974.7504
        50.7504         39.0004
  23162711.5484     513446.94949    382327.22347                  23162709.0034
        43.7504         27.2504
  22454677.8294    -860042.48849   -651936.43047                  22454675.5974
        49.0004         36.2504
  23142387.3564    -780703.06649   -592557.09447                  23142384.2964
        45.5004         28.5004
  20501187.4634     -67570.84449    -55277.29348                  20501185.0254
        50.2504         41.0004
 04  7 28 19 22 45.0000000  0  6G 1G11G14G20G23G25
  21811722.3884    -624395.02749   -476741.21547                  21811720.9244
        47.7504         33.7504
  21267578.1704     -47696.25049    -40361.42247                  21267576.0864
        50.2504         38.5004
  23168302.5264     542827.46149    405221.10947                  23168299.5544
        44.0004         26.2504
  22445057.9624    -910596.09049   -691328.82047                  22445055.8034
        48.5004         36.5004
  23133671.8164    -826507.00449   -628248.40647                  23133668.5844
        46.2504         28.5004
  20500538.6134     -70982.08649    -57935.39548                  20500535.8194
        50.5004         41.2504
 04  7 28 19 23  0.0000000  0  6G 1G11G14G20G23G25
  21805161.9444    -658870.44949   -503605.16447                  21805160.4394
        48.5004         35.0004
  21267195.0644     -49708.98849    -41929.79347                  21267192.9424
        50.0004         38.2504
  23173884.7494     572163.56649    428080.38347                  23173882.5354
        43.7504         26.5004
  22435432.8464    -961174.89149   -730740.85547                  22435431.2114
        48.0004         36.7504
  23124953.8224    -872319.89149   -663946.72747                  23124949.8464
        46.0004         27.7504
  20499904.2424     -74313.32449    -60531.16848                  20499901.9334
        51.5004         41.0004
 04  7 28 19 23 15.0000000  0  6G 1G11G14G20G23G25
  21798602.3054    -693341.68449   -530465.84847                  21798600.5974
        48.5004         34.2504
  21266827.8124     -51640.45349    -43434.84047                  21266825.2124
        49.0004         38.7504
  23179458.7454     601452.44549    450902.80847                  23179455.9654
        44.0004         25.7504
  22425802.4904   -1011781.33249   -770174.42247                  22425801.2694
        49.5004         36.2504
  23116232.2494    -918144.41849   -699654.09847                  23116228.9384
        43.5004         26.5004
  20499285.1924     -77567.16449    -63066.62148                  20499282.9584
        50.7504         41.2504
 04  7 28 19 23 30.0000000  0  6G 1G11G14G20G23G25
  21792043.6174    -727809.02049   -557323.47747                  21792041.6884
        49.2504         34.0004
  21266475.2784     -53491.28149    -44877.05147                  21266473.0874
        48.0004         38.5004
  23185023.1764     630693.57449    473688.12946                  23185020.3534
        43.7504         25.2504
  22416167.6894   -1062415.51649   -809629.60947                  22416165.7804
        49.5004         38.0004
  23107510.5554    -963980.75449   -735370.66047                  23107505.9404
        44.5004         26.7504
  20498680.4094     -80743.90649    -65542.00048                  20498678.1094
        50.2504         41.2504
 04  7 28 19 23 45.0000000  0  6G 1G11G14G20G23G25
  21785484.8584    -762271.95349   -584177.68747                  21785483.8864
        49.5004         35.0004
  21266138.9254     -55260.63749    -46255.77347                  21266136.2984
        50.0004         37.7504
  23190578.2304     659887.59049    496436.70347                  23190576.3094
        42.5004         26.0004
  22406526.9334   -1113076.70349   -849105.83647                  22406525.0584
        49.5004         37.5004
  23098785.9364   -1009828.28149   -771095.96547                  23098781.1514
        44.2504         27.5004
  20498090.9834     -83843.23849    -67957.06648                  20498088.4504
        52.0004         41.2504
 04  7 28 19 24  0.0000000  0  6G 1G11G14G20G23G25
  21778927.6054    -796731.69149   -611029.41047                  21778926.5254
        49.0004         33.5004
  21265817.3534     -56949.82049    -47572.02347                  21265814.8624
        50.7504         38.2504
  23196124.5144     689033.16849    519147.51247                  23196122.8524
        41.7504         26.5004
  22396880.8054   -1163765.91049   -888603.89547                  22396879.4874
        49.7504         37.5004
  23090058.9614   -1055688.32849   -806831.02747                  23090054.8944
        44.2504         29.0004
  20497515.8754     -86866.57449    -70312.90648                  20497512.9514
        52.5004         41.5004
 04  7 28 19 24 15.0000000  0  6G 1G11G14G20G23G25
  21772370.6924    -831188.13749   -637878.54747                  21772369.7224
        49.2504         33.2504
  21265511.4204     -58558.93749    -48825.88347                  21265508.7714
        49.5004         38.5004
  23201661.6844     718130.36749    541820.64847                  23201659.6404
        41.0004         27.5004
  22387230.2114   -1214482.64149   -928123.40247                  22387228.0604
        49.7504         37.2504
  23081330.2464   -1101560.64149   -842575.62147                  23081326.1164
        44.5004         28.2504
  20496954.7264     -89813.85949    -72609.48448                  20496952.0274
        52.5004         42.0004
 04  7 28 19 24 30.0000000  0  6G 1G11G14G20G23G25
  21765814.7254    -865639.39549   -664723.66047                  21765813.6164
        48.2504         33.0004
  21265220.4634     -60086.13349    -50015.91447                  21265218.2244
        50.0004         38.7504
  23207189.7234     747181.02749    564457.52046                  23207188.3384
        43.5004         25.2504
  22377574.0764   -1265224.91049   -967662.81647                  22377571.9594
        50.2504         37.2504
  23072599.4034   -1147443.33249   -878328.34047                  23072594.9334
        44.0004         29.0004
  20496408.5904     -92683.16849    -74845.30548                  20496406.0054
        52.5004         41.5004
 04  7 28 19 24 45.0000000  0  6G 1G11G14G20G23G25
  21759259.7094    -900087.57049   -691566.35947                  21759258.0544
        48.2504         32.5004
  21264945.2464     -61533.49249    -51143.72347                  21264942.7474
        51.0004         38.5004
  23212709.1914     776183.03149    587056.47347                  23212707.5604
        43.2504         28.2504
  22367913.3194   -1315994.53949  -1007223.55147                  22367911.2224
        51.0004         37.5004
  23063865.3714   -1193338.39549   -914090.68047                  23063862.5104
        44.2504         28.7504
  20495877.1614     -95476.71549    -77022.08648                  20495874.3484
        52.5004         42.0004
 04  7 28 19 25  0.0000000  0  6G 1G11G14G20G23G25
  21752704.6924    -934531.83249   -718406.02347                  21752703.8764
        48.0004         33.0004
  21264685.0704     -62900.41049    -52208.86747                  21264682.5104
        50.5004         39.0004
  23218218.9144     805137.09049    609618.05547                  23218216.6454
        43.0004         27.5004
  22358247.1434   -1366790.43449  -1046804.74247                  22358244.6674
        50.5004         37.0004
  23055129.3064   -1239245.03149   -949862.03147                  23055127.2404
        43.0004         28.0004
  20495360.0674     -98193.91049    -79139.38348                  20495357.4444
        53.0004         41.5004
 04  7 28 19 25 15.0000000  0  6G 1G11G14G20G23G25
  21746151.3774    -968970.32449   -745241.18047                  21746150.2364
        48.5004         32.7504
  21264440.2814     -64185.07049    -53209.89847                  21264437.9774
        51.5004         38.2504
  23223719.5404     834044.96149    632143.65247                  23223717.9164
        43.7504         27.5004
  22348576.3064   -1417610.57849  -1086404.83647                  22348573.7334
        50.7504         38.0004
  23046391.4434   -1285161.30549   -985640.87947                  23046389.2894
        43.0004         29.2504
  20494857.8054    -100832.79749    -81195.65248                  20494855.2194
        52.5004         41.7504
 04  7 28 19 25 30.0000000  0  6G 1G11G14G20G23G25
  22039392.0184   -1003400.00449   -772069.48047                  22039391.1314
        48.0004         31.7504
  21564004.3294     -65386.60549    -54146.16847                  21564002.0004
        49.7504         38.5004
  23529004.1594     862905.58249    654632.44547                  23529002.2664
        43.7504         28.2504
  22638694.1054   -1468450.47349  -1126020.32047                  22638692.1684
        50.0004         37.7504
  23337445.6684   -1331083.31249  -1021424.20747                  23337442.3764
        45.5004         28.5004
  20794162.9524    -103392.73849    -83190.41048                  20794160.5994
        52.0004         41.7504
 04  7 28 19 25 45.0000000  0  6G 1G11G14G20G23G25
  22032840.6654   -1037826.92249   -798895.63747                  22032839.6114
        46.5004         31.7504
  21563791.0934     -66506.75049    -55019.00847                  21563788.7804
        50.5004         38.5004
  23534487.6904     891721.24249    677086.18847                  23534485.7514
        43.7504         27.2504
  22629014.1284   -1519318.16849  -1165657.46947                  22629012.5404
        50.7504         38.5004
  23328703.8454   -1377018.52049  -1057217.84047                  23328701.7804
        43.2504         29.0004
  20793690.5994    -105875.46549    -85124.99248                  20793687.9804
        52.7504         41.7504
 04  7 28 19 26  0.0000000  0  6G 1G11G14G20G23G25
  22026290.6354   -1072248.27349   -825717.44147                  22026289.3754
        47.5004         32.0004
  21563593.6044     -67544.90249    -55827.96547                  21563591.1374
        50.7504         38.0004
  23539962.7234     920490.45349    699503.74247                  23539960.0604
        43.7504         28.2504
  22619330.0384   -1570209.43049  -1205312.96947                  22619328.2194
        50.7504         37.2504
  23319961.6204   -1422963.33649  -1093018.93447                  23319958.3014
        45.0004         29.2504
  20793233.0714    -108280.38349    -86998.95748                  20793230.5724
        52.7504         42.2504
 04  7 28 19 26 15.0000000  0  6G 1G11G14G20G23G25
  22019741.8854   -1106663.26649   -852534.30547                  22019740.8024
        47.7504         32.0004
  21563411.6164     -68500.41049    -56572.52347                  21563409.2354
        50.5004         38.7504
  23545427.9704     949214.05949    721885.76247                  23545426.1304
        41.0004         28.0004
  22609641.4314   -1621123.23849  -1244986.05147                  22609639.5054
        50.2504         37.5004
  23311217.0654   -1468916.95749  -1128826.92247                  23311213.4514
        45.0004         29.0004
  20792790.2874    -110606.75849    -88811.71548                  20792787.3394
        52.5004         42.2504
 04  7 28 19 26 30.0000000  0  6G 1G11G14G20G23G25
  22013193.8224   -1141071.12949   -879345.59847                  22013193.4504
        47.5004         33.2504
  21563245.7214     -69372.46949    -57252.05147                  21563243.6574
        50.5004         38.5004
  23550885.6134     977892.78549    744232.80147                  23550883.6804
        43.2504         28.2504
  22599948.7564   -1672058.50449  -1284675.85547                  22599946.6744
        49.5004         37.0004
  23302470.4134   -1514878.64849  -1164641.18447                  23302466.9204
        44.0004         29.5004
  20792362.6644    -112854.09049    -90562.87948                  20792360.2814
        52.5004         42.2504
 04  7 28 19 26 45.0000000  0  6G 1G11G14G20G23G25
  22006647.9754   -1175473.43049   -906152.56647                  22006646.4004
        48.2504         32.7504
  21563095.3104     -70162.70749    -57867.82447                  21563093.2584
        51.0004         39.2504
  23556334.3794    1006524.99249    766543.60947                  23556331.5764
        41.5004         28.0004
  22590251.5804   -1723016.68049  -1324383.48447                  22590249.5894
        49.5004         37.2504
  23293722.3584   -1560849.71549  -1200462.75447                  23293718.5374
        43.7504         29.0004
  20791949.6834    -115023.98449    -92253.69148                  20791947.3314
        52.2504         42.7504
 04  7 28 19 27  0.0000000  0  6G 1G11G14G20G23G25
  22000102.5164   -1209868.83249   -932954.16447                  22000101.2584
        48.0004         32.7504
  21562960.6664     -70870.03149    -58418.99247                  21562958.7594
        51.2504         39.0004
  23561774.7514    1035112.00849    788819.19147                  23561771.5184
        42.5004         27.0004
  22580550.5754   -1773996.13349  -1364107.71947                  22580547.9944
        50.2504         37.5004
  23284972.6204   -1606828.78949  -1236290.55147                  23284969.0544
        42.7504         29.2504
  20791551.8614    -117115.12949    -93883.15648                  20791549.5164
        52.5004         43.0004
 04  7 28 19 27 15.0000000  0  6G 1G11G14G20G23G25
  21993558.8204   -1244255.64149   -959749.05547                  21993557.9154
        48.2504         33.0004
  21562842.2254     -71492.87149    -58904.32447                  21562840.0624
        52.0004         39.0004
  23567205.8094    1063655.41849    811060.81347                  23567202.7404
        41.5004         27.2504
  22570845.9154   -1824994.85249  -1403846.96147                  22570843.1614
        50.5004         37.0004
  23276221.5214   -1652814.26649  -1272123.33647                  23276218.7084
        42.0004         30.5004
  20791169.0694    -119125.85249    -95449.95748                  20791166.8364
        53.2504         42.5004
 04  7 28 19 27 30.0000000  0  6G 1G11G14G20G23G25
  21987017.3244   -1278632.67649   -986536.32847                  21987016.1414
        48.0004         33.5004
  21562740.4834     -72030.14549    -59322.98447                  21562737.9084
        50.2504         39.2504
  23572629.1964    1092156.21549    833269.20746                  23572626.3544
        41.5004         25.5004
  22561137.5734   -1876011.55549  -1443600.21547                  22561135.0144
        50.0004         37.2504
  23267469.7954   -1698804.94549  -1307960.16447                  23267466.8954
        40.0004         30.5004
  20790801.8934    -121055.22349    -96953.36348                  20790799.6864
        51.2504         42.5004
 04  7 28 19 27 45.0000000  0  6G 1G11G14G20G23G25
  21980477.5454   -1312999.17249  -1013315.39547                  21980476.7394
        47.5004         33.5004
  21562654.2574     -72481.03149    -59674.32848                  21562652.0174
        51.0004         39.7504
  23578044.5514    1120615.30549    855445.12947                  23578042.2264
        41.0004         26.7504
  22551425.9754   -1927045.16849  -1483366.65647                  22551423.6764
        50.5004         37.0004
  23258717.2334   -1744799.91849  -1343800.36347                  23258713.9884
        41.5004         30.0004
  20790450.4544    -122902.57449    -98392.85548                  20790448.0384
        52.0004         42.5004
 04  7 28 19 28  0.0000000  0  6G 1G11G14G20G23G25
  21973940.0404   -1347353.08649  -1040084.65647                  21973939.5554
        47.5004         32.5004
  21562585.3584     -72843.76249    -59956.98848                  21562583.0854
        52.0004         39.5004
  23583452.7034    1149034.71549    877590.09446                  23583450.4764
        40.5004         25.5004
  22541712.1024   -1978093.28149  -1523144.38347                  22541709.3984
        50.2504         37.0004
  23249965.0234   -1790797.13349  -1379642.29747                  23249961.0574
        42.2504         30.2504
  20790114.9434    -124665.96149    -99766.92248                  20790112.4314
        52.0004         42.7504
 04  7 28 19 28 15.0000000  0  6G 1G11G14G20G23G25
  21967405.8564   -1381692.95349  -1066842.96947                  21967404.6574
        47.5004         31.2504
  21562533.4974     -73116.60949    -60169.60547                  21562531.4424
        52.0004         39.2504
  23588853.1284    1177415.78149    899705.21546                  23588851.0614
        41.0004         25.2504
  22531995.8314   -2029154.30149  -1562932.17247                  22531993.1824
        50.0004         37.0004
  23241211.2654   -1836795.03149  -1415484.76647                  23241208.0364
        41.2504         30.5004
  20789795.6324    -126343.85949   -101074.37548                  20789793.2854
        52.5004         42.5004
 04  7 28 19 28 30.0000000  0  6G 1G11G14G20G23G25
  21960873.6234   -1416017.34849  -1093589.23047                  21960872.7484
        47.5004         32.0004
  21562498.9774     -73298.32049    -60311.20748                  21562496.6374
        52.0004         39.7504
  23594247.1954    1205759.89549    921791.54747                  23594245.1954
        38.7504         26.5004
  22522276.5124   -2080226.47349  -1602728.66447                  22522273.8424
        50.0004         37.0004
  23232458.7384   -1882792.12149  -1451326.59447                  23232454.9404
        43.5004         30.5004
  20789492.6634    -127934.98849   -102314.21548                  20789490.2224
        52.5004         42.5004
 04  7 28 19 28 45.0000000  0  6G 1G11G14G20G23G25
  21954344.8664   -1450324.04749  -1120321.69547                  21954343.9054
        47.5004         32.0004
  21562482.0634     -73386.89849    -60380.23848                  21562479.7914
        52.0004         40.2504
  23599634.1514    1234069.30149    943850.80546                  23599633.2004
        40.2504         25.5004
  22512556.6254   -2131307.31649  -1642531.89547                  22512554.0834
        50.5004         37.0004
  23223705.9354   -1928786.24649  -1487166.14547                  23223701.7014
        41.5004         30.0004
  20789206.6984    -129437.31649   -103484.85548                  20789204.6924
        51.5004         43.0004
 04  7 28 19 29  0.0000000  0  6G 1G11G14G20G23G25
  21947819.9184   -1484614.20749  -1147041.28547                  21947818.7554
        47.2504         32.0004
  21562482.9864     -73383.55549    -60377.63748                  21562480.5124
        52.5004         39.7504
  23605014.2374    1262342.78949    965882.09046                  23605013.9474
        40.2504         24.0004
  22502834.4554   -2182397.75049  -1682342.62147                  22502832.1114
        50.0004         37.7504
  23214953.9284   -1974778.46549  -1523004.20347                  23214949.2284
        42.5004         29.7504
  20788937.7084    -130852.09049   -104587.27748                  20788935.5594
        52.0004         42.7504
 04  7 28 19 29 15.0000000  0  6G 1G11G14G20G23G25
  21941298.3154   -1518886.53149  -1173746.98047                  21941296.8964
        47.2504         32.0004
  21562501.3264     -73287.07049    -60302.46948                  21562498.7674
        52.7504         40.0004
  23610387.4964    1290581.59449    987886.33646                  23610386.4824
        38.0004         22.5004
  22493110.6814   -2233496.23049  -1722159.59047                  22493108.4394
        50.0004         38.2504
  23206202.3384   -2020767.44149  -1558839.73847                  23206198.2474
        41.7504         30.2504
  20788685.4304    -132178.10249   -105620.53148                  20788682.9994
        51.0004         43.0004
 04  7 28 19 29 30.0000000  0  6G 1G11G14G20G23G25
  21934780.2214   -1553137.92649  -1200436.35947                  21934779.2034
        47.2504         31.5004
  21562537.7294     -73094.34849    -60152.30148                  21562535.5414
        52.0004         39.7504
  23615755.8444    1318788.73849   1009865.93046                  23615754.8744
        37.5004         22.2504
  22483385.7334   -2284599.52049  -1761980.31647                  22483383.6994
        50.7504         38.0004
  23197452.7044   -2066749.93749  -1594670.19147                  23197448.2584
        41.2504         30.5004
  20788450.5434    -133412.42249   -106582.34448                  20788448.3514
        51.2504         42.7504
 04  7 28 19 29 45.0000000  0  6G 1G11G14G20G23G25
  21928266.1994   -1587368.05549  -1227109.16447                  21928265.1024
        47.2504         32.5004
  21562592.8704     -72805.11749    -59926.93047                  21562590.6284
        52.0004         39.0004
  23621116.6274    1346964.56649   1031821.07446                  23621116.6494
        39.7504         22.5004
  22473660.2984   -2335706.87149  -1801804.21547                  22473658.4174
        50.2504         38.2504
  23188703.0594   -2112725.49249  -1630495.25047                  23188699.7084
        43.2504         31.0004
  20788233.4034    -134554.64149   -107472.37948                  20788231.0614
        51.5004         42.5004
 04  7 28 19 30  0.0000000  0  6G 1G11G14G20G23G25
  21921757.0204   -1621575.90249  -1253764.59847                  21921755.6054
        47.5004         32.7504
  21562666.0264     -72418.67249    -59625.81248                  21562663.7174
        52.5004         39.5004
  23626472.9404    1375110.05949   1053752.61746                  23626472.1414
        38.0004         22.2504
  22463934.6084   -2386817.03949  -1841630.30547                  22463932.4124
        50.0004         37.5004
  23179956.2744   -2158693.05549  -1666314.08247                  23179952.4964
        42.2504         31.5004
  20788033.4924    -135604.02349   -108290.08248                  20788031.1814
        51.2504         43.0004
 04  7 28 19 30 15.0000000  0  6G 1G11G14G20G23G25
  21915251.6334   -1655761.51249  -1280402.71547                  21915250.6884
        47.5004         33.7504
  21562758.2454     -71934.97349    -59248.91848                  21562755.9424
        52.5004         39.7504
  23631823.5554    1403225.30949   1075660.58646                  23631821.9894
        40.0004         21.7504
  22454208.3694   -2437929.80549  -1881458.42247                  22454205.9164
        50.0004         37.5004
  23171209.7764   -2204652.67249  -1702126.73847                  23171207.1894
        43.5004         32.0004
  20787851.4674    -136560.63349   -109035.48448                  20787849.1114
        51.7504         42.5004
 04  7 28 19 30 30.0000000  0  6G 1G11G14G20G23G25
  21908750.1064   -1689925.95749  -1307024.34447                  21908749.1404
        47.2504         32.5004
  21562868.7994     -71355.29749    -58797.23048                  21562866.3824
        51.0004         39.5004
  23637167.2514    1431308.97349   1097543.93446                  23637166.4254
        40.7504         21.5004
  22444480.8124   -2489045.96149  -1921289.18447                  22444479.0154
        50.5004         38.2504
  23162465.6624   -2250605.43449  -1737934.02747                  23162462.3664
        44.2504         33.0004
  20787686.8504    -137425.83649   -109709.67248                  20787684.3294
        50.0004         42.2504
 04  7 28 19 30 45.0000000  0  6G 1G11G14G20G23G25
  21902253.5164   -1724067.00849  -1333627.74247                  21902251.7414
        47.0004         33.0004
  21562997.8324     -70677.41049    -58269.01247                  21562995.5164
        52.0004         39.0004
  23642506.0374    1459363.38349   1119404.48046                  23642504.2444
        41.0004         20.5004
  22434753.5654   -2540163.07449  -1961120.67647                  22434751.6974
        51.2504         38.0004
  23153722.7784   -2296549.07449  -1773734.22747                  23153719.9634
        46.0004         32.5004
  20787539.6804    -138197.27049   -110310.78548                  20787537.3014
        51.5004         42.5004
 04  7 28 19 31  0.0000000  0  6G 1G11G14G20G23G25
  21895761.2934   -1758184.10249  -1360212.46147                  21895759.7254
        48.0004         33.5004
  21563145.5594     -69900.84449    -57663.91047                  21563143.2824
        51.7504         39.0004
  23647838.7784    1487388.95349   1141242.57046                  23647837.1774
        40.7504         22.2504
  22425026.4604   -2591280.21949  -2000952.19947                  22425024.4104
        50.7504         37.5004
  23144981.8124   -2342482.90249  -1809526.77047                  23144978.7774
        44.5004         33.0004
  20787411.0354    -138874.54349   -110838.53548                  20787408.6744
        51.0004         42.2504
 04  7 28 19 31 15.0000000  0  6G 1G11G14G20G23G25
  21889274.3054   -1792275.93449  -1386777.50447                  21889272.1904
        48.5004         34.5004
  21563312.2144     -69024.41049    -56980.98447                  21563309.7794
        51.7504         39.0004
  23653167.0884    1515386.88349   1163059.07446                  23653165.6304
        41.5004         21.0004
  22415299.5124   -2642395.90249  -2040782.58247                  22415297.7534
        50.7504         37.5004
  23136243.2134   -2388405.55949  -1845310.59847                  23136240.0804
        45.2504         32.2504
  20787300.3194    -139456.49249   -111292.00448                  20787298.1284
        51.7504         42.5004
 04  7 28 19 31 30.0000000  0  6G 1G11G14G20G23G25
  21882790.4964   -1826344.60949  -1413324.50447                  21882789.2214
        48.5004         34.0004
  21563497.8274     -68050.27749    -56221.92647                  21563495.1514
        51.7504         39.0004
  23658488.9354    1543355.22749   1184852.59046                  23658486.9374
        42.0004         21.5004
  22405572.4414   -2693511.92649  -2080613.22747                  22405570.3874
        50.7504         37.7504
  23127505.2194   -2434319.10549  -1881087.34847                  23127502.7274
        44.5004         32.7504
  20787207.2634    -139945.27049   -111672.86348                  20787205.0504
        51.5004         42.0004
 04  7 28 19 31 45.0000000  0  6G 1G11G14G20G23G25
  21876312.1634   -1860390.13749  -1439853.46147                  21876310.7484
        48.2504         34.5004
  21563701.4514     -66978.54349    -55386.82047                  21563699.0474
        50.7504         38.5004
  23663805.3524    1571293.94949   1206623.01246                  23663802.9934
        41.7504         21.7504
  22395844.8884   -2744628.02349  -2120443.93447                  22395843.0724
        51.0004         37.0004
  23118770.8064   -2480223.50849  -1916856.96547                  23118767.4794
        45.5004         32.5004
  20787132.3964    -140340.96949   -111981.20748                  20787129.5074
        50.2504         41.5004
 04  7 28 19 32  0.0000000  0  6G 1G11G14G20G23G25
  21869837.5904   -1894412.27749  -1466364.19547                  21869836.5194
        47.7504         34.7504
  21563924.0784     -65809.16049    -54475.62147                  21563921.4634
        51.7504         38.2504
  23669116.7124    1599203.19149   1228370.41046                  23669115.6024
        41.7504         23.0004
  22386118.1014   -2795743.66049  -2160274.28147                  22386116.3374
        51.2504         37.2504
  23110037.4724   -2526118.43449  -1952619.18747                  23110033.3404
        46.0004         32.7504
  20787074.4774    -140643.39549   -112216.86348                  20787072.0354
        51.0004         41.5004
 04  7 28 19 32 15.0000000  0  6G 1G11G14G20G23G25
  21863368.0704   -1928409.59449  -1492855.59047                  21863367.4444
        47.5004         35.5004
  21564165.3814     -64540.70349    -53487.21547                  21564163.0374
        50.7504         38.2504
  23674422.3544    1627084.37549   1250095.99646                  23674420.2904
        42.0004         22.2504
  22376391.5254   -2846857.30149  -2200103.07447                  22376389.6894
        50.7504         37.5004
  23101305.1784   -2572002.39849  -1988372.89847                  23101301.5324
        46.0004         32.7504
  20787034.9464    -140851.26649   -112378.83248                  20787032.6624
        51.0004         41.7504
 04  7 28 19 32 30.0000000  0  6G 1G11G14G20G23G25
  21856903.5604   -1962380.59049  -1519326.47747                  21856902.7504
        48.0004         35.5004
  21564425.7884     -63171.89149    -52420.61747                  21564423.2164
        51.5004         37.7504
  23679722.7984    1654938.86349   1271800.78546                  23679721.4194
        42.2504         22.2504
  22366665.7544   -2897967.13749  -2239928.91047                  22366663.2714
        50.2504         36.5004
  23092576.6874   -2617874.01249  -2024116.96147                  23092572.5444
        47.5004         33.5004
  20787013.6974    -140963.22749   -112466.08248                  20787010.9864
        51.5004         42.0004
 04  7 28 19 32 45.0000000  0  6G 1G11G14G20G23G25
  21850444.8214   -1996323.64849  -1545775.60947                  21850443.8464
        48.5004         36.0004
  21564705.6644     -61701.03549    -51274.50447                  21564703.4534
        50.7504         38.2504
  23685018.7524    1682768.40249   1293486.09446                  23685018.0544
        42.7504         22.5004
  22356940.5684   -2949071.27049  -2279750.28547                  22356938.7174
        50.2504         36.2504
  23083850.2274   -2663731.46549  -2059849.99247                  23083846.3574
        46.7504         34.0004
  20787010.9604    -140977.96149   -112477.56248                  20787008.2134
        51.0004         41.2504
 04  7 28 19 33  0.0000000  0  6G 1G11G14G20G23G25
  21843990.6184   -2030239.94149  -1572203.85947                  21843989.6864
        48.5004         36.0004
  21565004.6944     -60129.40249    -50049.85247                  21565002.5184
        51.0004         38.2504
  23690309.8994    1710571.90649   1315151.15246                  23690308.3964
        44.0004         24.5004
  22347216.7684   -3000170.47749  -2319567.82447                  22347214.4984
        51.0004         36.5004
  23075126.3154   -2709575.80149  -2095572.81247                  23075122.9314
        46.0004         32.5004
  20787026.1874    -140896.65249   -112414.20348                  20787023.8094
        51.5004         41.5004
 04  7 28 19 33 15.0000000  0  6G 1G11G14G20G23G25
  21837541.6614   -2064130.06649  -1598611.73047                  21837540.5514
        48.2504         36.0004
  21565322.8914     -58457.78549    -48747.29747                  21565320.8394
        51.0004         38.0004
  23695595.8064    1738348.63749   1336795.36746                  23695594.2854
        44.0004         23.5004
  22337493.9134   -3051265.13749  -2359381.82447                  22337491.3174
        51.2504         36.0004
  23066404.6504   -2755407.61749  -2131285.85547                  23066401.2264
        46.7504         32.7504
  20787059.9874    -140719.84849   -112276.43748                  20787057.4374
        52.0004         41.2504
 04  7 28 19 33 30.0000000  0  6G 1G11G14G20G23G25
  21831098.2444   -2097990.75449  -1624996.66447                  21831096.8704
        48.2504         36.2504
  21565660.6334     -56683.09849    -47364.42647                  21565658.5724
        50.5004         38.2504
  23700877.1934    1766101.71949   1358421.12146                  23700876.0244
        45.0004         24.0004
  22327772.7064   -3102351.74249  -2399189.55147                  22327770.1634
        51.0004         36.0004
  23057686.1444   -2801223.68749  -2166986.62947                  23057683.0514
        47.2504         32.7504
  20787112.0824    -140444.58649   -112061.95348                  20787110.0674
        51.2504         41.7504
 04  7 28 19 33 45.0000000  0  6G 1G11G14G20G23G25
  21824660.0504   -2131821.62549  -1651358.35947                  21824659.0824
        48.2504         36.2504
  21566017.6804     -54804.89849    -45900.88747                  21566016.1074
        50.5004         38.0004
  23706153.7704    1793831.62549   1380028.84046                  23706152.0784
        45.7504         25.5004
  22318052.8914   -3153429.65249  -2438990.48447                  22318050.2674
        51.5004         36.5004
  23048970.4514   -2847023.49649  -2202674.74647                  23048967.6914
        47.7504         33.2504
  20787183.4814    -140070.46149   -111770.42248                  20787181.0624
        51.7504         41.5004
 04  7 28 19 34  0.0000000  0  6G 1G11G14G20G23G25
  21818227.9404   -2165622.29749  -1677696.53547                  21818226.4814
        49.0004         36.7504
  21566394.9904     -52822.96949    -44356.53947                  21566393.0624
        50.2504         38.5004
  23711425.8174    1821538.61349   1401618.69146                  23711424.1874
        44.2504         24.0004
  22308335.0164   -3204498.20349  -2478784.15247                  22308332.5464
        51.0004         36.2504
  23040258.0414   -2892806.66849  -2238349.89547                  23040255.1874
        48.2504         32.2504
  20787273.5354    -139597.34449   -111401.76248                  20787271.0914
        51.2504         41.0004
 04  7 28 19 34 15.0000000  0  6G 1G11G14G20G23G25
  21811801.7424   -2199394.71149  -1704012.66847                  21811800.3114
        49.5004         36.7504
  21566791.4374     -50739.30949    -42732.90647                  21566789.7404
        49.7504         38.7504
  23716694.4174    1849220.73449   1423189.15647                  23716691.9434
        46.0004         26.0004
  22298618.1424   -3255559.07049  -2518571.81247                  22298615.9004
        51.2504         36.7504
  23031549.0434   -2938575.07449  -2274013.52347                  23031545.7594
        48.2504         32.2504
  20787381.9304    -139027.33649   -110957.59448                  20787379.7934
        51.5004         41.5004
 04  7 28 19 34 30.0000000  0  6G 1G11G14G20G23G25
  21805380.5954   -2233135.63349  -1730304.26647                  21805379.8694
        50.2504         36.7504
  21567207.8804     -48550.78149    -41027.55947                  21567206.0144
        50.0004         39.0004
  23721957.6404    1876881.09849   1444742.68447                  23721955.3264
        46.0004         26.5004
  22288903.5134   -3306608.77749  -2558350.77747                  22288901.8744
        51.5004         37.2504
  23022842.0924   -2984325.44549  -2309663.12547                  23022839.6984
        47.2504         32.0004
  20787509.6434    -138357.19949   -110435.41048                  20787506.9454
        51.7504         41.2504
 04  7 28 19 34 45.0000000  0  6G 1G11G14G20G23G25
  21798965.8804   -2266845.79749  -1756571.91047                  21798964.6974
        49.5004         36.5004
  21567644.0944     -46258.60249    -39241.45747                  21567642.0804
        49.7504         38.7504
  23727217.2594    1904519.15249   1466278.81347                  23727214.7214
        46.0004         26.2504
  22279191.4844   -3357647.84849  -2598121.46547                  22279189.4854
        51.7504         37.0004
  23014139.8774   -3030058.40249  -2345299.16447                  23014136.0624
        48.2504         31.5004
  20787655.9354    -137587.80949   -109835.88348                  20787653.4054
        51.5004         41.7504
 04  7 28 19 35  0.0000000  0  6G 1G11G14G20G23G25
  21792557.2774   -2300523.77349  -1782814.47347                  21792556.0774
        50.0004         36.7504
  21568100.3024     -43861.18449    -37373.34447                  21568098.5174
        51.5004         38.7504
  23732472.7324    1932136.19949   1487798.58247                  23732470.3774
        45.7504         26.5004
  22269481.3804   -3408674.43049  -2637882.41047                  22269479.0474
        51.7504         37.7504
  23005441.0954   -3075772.54349  -2380920.51247                  23005436.4834
        48.5004         31.5004
  20787821.3874    -136717.84849   -109157.99648                  20787819.0994
        52.5004         41.5004
 04  7 28 19 35 15.0000000  0  6G 1G11G14G20G23G25
  21786154.6664   -2334168.84449  -1809031.39147                  21786153.2974
        49.7504         37.0004
  21568576.8564     -41357.90249    -35422.73847                  21568574.7434
        51.0004         39.2504
  23737724.0254    1959732.99249   1509302.54747                  23737721.7654
        45.0004         26.5004
  22259773.9914   -3459687.57049  -2677632.89547                  22259771.4014
        52.0004         37.5004
  22996745.4914   -3121466.99649  -2416526.55947                  22996740.7674
        48.0004         31.0004
  20788006.4324    -135746.68449   -108401.25048                  20788003.5994
        52.0004         41.2504
 04  7 28 19 35 30.0000000  0  6G 1G11G14G20G23G25
  21779758.2514   -2367781.33649  -1835222.92247                  21779757.2404
        49.5004         36.5004
  21569073.3434     -38749.25849    -33390.02747                  21569071.1264
        50.7504         39.2504
  23742971.9764    1987309.26249   1530790.54747                  23742969.3104
        45.7504         25.7504
  22250068.8174   -3510687.28149  -2717372.90647                  22250066.8894
        52.0004         37.2504
  22988053.6694   -3167142.10249  -2452117.50447                  22988049.9964
        48.0004         31.0004
  20788210.5034    -134674.76249   -107565.98048                  20788207.5354
        51.5004         41.5004
 04  7 28 19 35 45.0000000  0  6G 1G11G14G20G23G25
  21773368.6344   -2401361.07849  -1861388.93447                  21773367.5314
        49.5004         37.0004
  21569590.2134     -36035.10249    -31275.10547                  21569587.5204
        52.0004         39.2504
  23748215.0754    2014865.05549   1552262.56647                  23748212.9184
        44.5004         26.0004
  22240366.7334   -3561673.07449  -2757102.08647                  22240364.3064
        52.0004         37.7504
  22979365.9604   -3212797.57849  -2487693.14147                  22979362.2424
        47.7504         30.5004
  20788433.4644    -133502.14549   -106652.25048                  20788431.1044
        52.2504         41.7504
 04  7 28 19 36  0.0000000  0  6G 1G11G14G20G23G25
  21766985.1254   -2434906.07449  -1887527.87547                  21766983.6904
        49.7504         36.7504
  21570127.0654     -33213.55949    -29076.50048                  21570124.3984
        52.0004         40.0004
  23753455.2484    2042402.39849   1573720.22346                  23753453.2414
        44.0004         24.5004
  22230667.2974   -3612642.76649  -2796818.71147                  22230665.3574
        52.0004         37.7504
  22970682.1464   -3258431.41049  -2523251.93047                  22970678.4074
        47.7504         29.5004
  20788676.1824    -132226.96949   -105658.60548                  20788673.2884
        51.7504         41.5004
 04  7 28 19 36 15.0000000  0  6G 1G11G14G20G23G25
  21760608.5874   -2468413.34449  -1913637.40647                  21760607.5704
        49.5004         36.5004
  21570685.0344     -30281.72749    -26791.96148                  21570682.3294
        52.0004         39.5004
  23758692.3434    2069924.19549   1595165.76647                  23758690.3084
        43.5004         26.2504
  22220971.6864   -3663593.14149  -2836520.28147                  22220969.7514
        52.0004         37.7504
  22962002.7744   -3304040.62549  -2558791.53547                  22961999.0404
        47.2504         29.5004
  20788938.9054    -130846.36349   -104582.80548                  20788936.1874
        51.2504         42.2504
 04  7 28 19 36 30.0000000  0  6G 1G11G14G20G23G25
  21754239.3954   -2501883.44949  -1939717.98047                  21754238.3824
        49.0004         36.2504
  21571263.5414     -27240.42649    -24422.12948                  21571261.1924
        52.7504         40.0004
  23763926.4024    2097429.92649   1616598.76647                  23763924.8224
        43.0004         27.0004
  22211279.6334   -3714524.42649  -2876206.98847                  22211277.9014
        51.5004         37.5004
  22953328.0374   -3349625.59449  -2594312.25047                  22953323.8864
        47.2504         30.2504
  20789221.4854    -129360.87149   -103425.27748                  20789218.9904
        52.0004         42.0004
 04  7 28 19 36 45.0000000  0  6G 1G11G14G20G23G25
  21747877.1544   -2535318.23449  -1965771.04347                  21747875.8244
        49.5004         35.7504
  21571862.9784     -24091.59849    -21968.50048                  21571860.2444
        52.2504         40.0004
  23769157.3734    2124917.67649   1638017.76647                  23769155.3334
        43.0004         27.2504
  22201591.0704   -3765438.23449  -2915880.06247                  22201589.0534
        52.0004         37.5004
  22944658.1354   -3395188.19149  -2629815.53147                  22944653.4264
        47.0004         29.5004
  20789523.5034    -127772.62949   -102187.68448                  20789520.7824
        51.5004         41.7504
 04  7 28 19 37  0.0000000  0  6G 1G11G14G20G23G25
  21741521.6654   -2568716.16049  -1991795.38747                  21741520.4034
        49.2504         36.2504
  21572482.8364     -20833.69549    -19429.88748                  21572480.0334
        52.2504         40.0004
  23774385.2834    2152389.08249   1659424.03947                  23774383.8994
        42.5004         26.0004
  22191906.0854   -3816332.68449  -2955538.05947                  22191904.2304
        51.7504         37.5004
  22935991.9374   -3440726.75849  -2665300.08647                  22935987.6014
        47.0004         29.0004
  20789845.9094    -126080.17249   -100868.88348                  20789843.2104
        51.7504         41.5004
 04  7 28 19 37 15.0000000  0  6G 1G11G14G20G23G25
  21735173.0924   -2602078.94949  -2017792.32447                  21735171.5714
        49.0004         36.0004
  21573123.0944     -17468.63349    -16807.77348                  21573120.8674
        52.5004         40.7504
  23779609.4544    2179842.24649   1680816.11747                  23779608.3894
        42.5004         27.5004
  22182224.7974   -3867209.15649  -2995182.05547                  22182222.8884
        51.5004         37.7504
  22927330.7514   -3486243.04349  -2700767.28947                  22927326.3284
        46.7504         29.0004
  20790187.2174    -124285.19949    -99470.19148                  20790184.9984
        51.5004         41.5004
 04  7 28 19 37 30.0000000  0  6G 1G11G14G20G23G25
  21728831.0554   -2635405.63349  -2043761.16447                  21728829.9904
        48.7504         35.7504
  21573784.4654     -13995.54349    -14101.48048                  21573781.6184
        52.5004         40.0004
  23784829.7134    2207278.18449   1702194.74247                  23784829.1694
        42.0004         28.0004
  22172546.7364   -3918066.51249  -3034811.13747                  22172545.1714
        51.7504         37.0004
  22918673.9414   -3531736.03149  -2736216.32447                  22918669.1024
        46.0004         29.2504
  20790548.2764    -122386.97749    -97991.06248                  20790546.2194
        51.5004         41.5004
 04  7 28 19 37 45.0000000  0  6G 1G11G14G20G23G25
  21722495.6734   -2668697.41049  -2069702.77347                  21722494.5464
        50.0004         35.5004
  21574465.4494     -10415.78949    -11312.06648                  21574462.8024
        52.7504         39.7504
  23790047.9624    2234695.68449   1723559.02347                  23790046.5554
        42.7504         27.0004
  22162872.6504   -3968905.68449  -3074426.05147                  22162870.8084
        52.0004         37.2504
  22910020.9084   -3577206.80949  -2771648.06647                  22910017.0134
        46.5004         30.0004
  20790929.0994    -120386.85949    -96432.52048                  20790926.6624
        51.5004         41.5004
 04  7 28 19 38  0.0000000  0  6G 1G11G14G20G23G25
  21716167.5964   -2701951.34049  -2095614.89547                  21716166.4514
        50.0004         35.7504
  21575167.4184      -6726.43449     -8437.25448                  21575165.0494
        53.2504         39.7504
  23795262.0174    2262097.74649   1744911.25847                  23795261.4114
        42.5004         27.5004
  22153202.4514   -4019723.36349  -3114024.23047                  22153199.6704
        52.0004         37.5004
  22901372.7994   -3622652.41849  -2807060.18747                  22901368.8374
        46.0004         29.0004
  20791329.7524    -118282.10949    -94792.45748                  20791327.0404
        52.0004         41.2504
 04  7 28 19 38 15.0000000  0  6G 1G11G14G20G23G25
  21709846.1244   -2735169.47749  -2121499.13347                  21709845.8394
        49.5004         35.5004
  21575890.0614      -2929.76649     -5478.82448                  21575887.4644
        52.2504         39.5004
  23800472.7244    2289482.34049   1766249.87147                  23800472.4374
        41.5004         26.0004
  22143535.9954   -4070521.32049  -3153607.03147                  22143533.4204
        52.0004         36.7504
  22892728.8144   -3668074.85549  -2842454.27347                  22892725.1354
        46.0004         29.5004
  20791749.4204    -116074.93449    -93072.57448                  20791747.2194
        52.0004         41.0004
 04  7 28 19 38 30.0000000  0  6G 1G11G14G20G23G25
  21703531.7374   -2768352.66849  -2147356.14847                  21703531.2394
        50.0004         35.7504
  21576632.5614        973.25849     -2437.51248                  21576629.8614
        52.5004         39.5004
  23805680.4564    2316848.62949   1787574.23447                  23805679.4954
        42.5004         27.2504
  22133872.9184   -4121300.06249  -3193174.85947                  22133869.8254
        51.7504         36.5004
  22884089.6244   -3713474.85249  -2877830.85247                  22884085.4514
        46.5004         29.5004
  20792189.0344    -113766.25049    -91273.59448                  20792186.5084
        52.2504         41.2504
 04  7 28 19 38 45.0000000  0  6G 1G11G14G20G23G25
  21697223.9424   -2801502.04749  -2173186.81247                  21697223.3904
        49.5004         35.5004
  21577395.5374       4981.37549       685.68048                  21577392.8444
        51.5004         39.5004
  23810884.2654    2344195.34849   1808883.34846                  23810883.5884
        41.7504         24.7504
  22124213.5744   -4172060.55149  -3232728.47347                  22124210.9334
        52.0004         37.0004
  22875453.8804   -3758853.64549  -2913190.90247                  22875450.4314
        46.0004         29.0004
  20792647.3754    -111357.27749    -89396.47748                  20792644.7754
        51.7504         42.0004
 04  7 28 19 39  0.0000000  0  6G 1G11G14G20G23G25
  21690922.4774   -2834616.48049  -2198990.25047                  21690921.6114
        49.0004         35.5004
  21578178.1854       9095.55149      3891.52747                  21578175.5484
        52.2504         39.0004
  23816085.2074    2371523.65249   1830178.09046                  23816084.0964
        41.5004         25.0004
  22114557.8284   -4222801.41449  -3272266.78947                  22114555.2134
        52.0004         37.2504
  22866823.3014   -3804209.96149  -2948533.45747                  22866819.4284
        46.0004         30.0004
  20793125.1564    -108846.96549    -87440.38748                  20793122.7464
        52.5004         41.7504
 04  7 28 19 39 15.0000000  0  6G 1G11G14G20G23G25
  21684628.4364   -2867693.77749  -2224764.75047                  21684627.5854
        49.5004         35.0004
  21578981.8314      13317.80149      7181.57847                  21578979.3504
        52.5004         38.7504
  23821282.1714    2398835.66449   1851460.14846                  23821280.1954
        40.7504         24.7504
  22104906.1664   -4273520.12149  -3311787.83647                  22104903.7614
        51.5004         36.7504
  22858196.9094   -3849541.58649  -2983856.75847                  22858193.2664
        46.7504         31.0004
  20793622.4434    -106233.23449    -85403.70748                  20793619.5414
        52.2504         41.7504
 04  7 28 19 39 30.0000000  0  6G 1G11G14G20G23G25
  21678340.7854   -2900733.54349  -2250510.00047                  21678339.9524
        49.5004         35.2504
  21579805.8644      17648.34449     10556.02047                  21579803.6424
        52.0004         38.5004
  23826476.5224    2426131.81349   1872729.86746                  23826474.6264
        40.5004         24.7504
  22095259.3364   -4324215.93749  -3351291.04747                  22095256.7154
        51.7504         37.2504
  22849575.2864   -3894848.01649  -3019160.41847                  22849571.8794
        46.0004         30.2504
  20794139.4804    -103515.88749    -83286.28948                  20794136.6104
        51.5004         41.5004
 04  7 28 19 39 45.0000000  0  6G 1G11G14G20G23G25
  21672059.9714   -2933739.37549  -2276228.80547                  21672059.0664
        49.5004         35.0004
  21580649.7214      22083.51249     14011.98847                  21580647.1904
        52.0004         38.5004
  23831667.4484    2453408.51649   1893984.41046                  23831665.4374
        42.5004         24.7504
  22085615.7254   -4374892.25449  -3390779.06247                  22085613.7834
        51.7504         37.5004
  22840957.5844   -3940132.79349  -3054447.20347                  22840953.9694
        46.2504         30.0004
  20794675.3424    -100698.82449    -81091.16448                  20794673.0864
        52.0004         41.5004
 04  7 28 19 40  0.0000000  0  6G 1G11G14G20G23G25
  21665785.4764   -2966711.05549  -2301920.99247                  21665784.2694
        49.0004         34.7504
  21581513.6954      26623.53149     17549.65247                  21581510.8244
        52.0004         38.5004
  23836853.7704    2480665.93849   1915223.94546                  23836852.3444
        41.7504         23.0004
  22075976.0134   -4425548.60249  -3430251.52047                  22075974.1894
        51.0004         37.0004
  22832344.8274   -3985395.75449  -3089717.00047                  22832340.5504
        46.5004         30.0004
  20795230.7564     -97781.94949    -78818.27748                  20795227.9554
        52.0004         41.0004
 04  7 28 19 40 15.0000000  0  6G 1G11G14G20G23G25
  21659518.0254   -2999646.97349  -2327585.31647                  21659516.6614
        49.5004         34.5004
  21582397.5884      31269.86749     21170.17247                  21582395.1954
        52.0004         37.5004
  23842037.3594    2507905.72349   1936449.70746                  23842035.4684
        41.7504         22.0004
  22066340.7084   -4476182.97749  -3469706.85947                  22066338.4824
        51.7504         37.0004
  22823735.5524   -4030635.13349  -3124968.44147                  22823731.1994
        46.0004         30.0004
  20795804.9174     -94763.73449    -76466.41448                  20795802.2184
        52.0004         41.2504
 04  7 28 19 40 30.0000000  0  6G 1G11G14G20G23G25
  21653256.9494   -3032549.22349  -2353223.41447                  21653255.2894
        48.7504         34.2504
  21583301.4684      36020.32449     24871.81647                  21583298.8824
        50.7504         38.0004
  23847217.2164    2535125.75849   1957660.12946                  23847215.5264
        42.2504         22.7504
  22056709.0584   -4526797.21149  -3509146.49647                  22056707.0394
        51.7504         37.2504
  22815130.6294   -4075852.95349  -3160203.07047                  22815127.1624
        45.5004         29.7504
  20796398.2674     -91646.34449    -74037.27348                  20796395.9164
        51.0004         41.5004
 04  7 28 19 40 45.0000000  0  7G 1G11G14G20G23G25G16
  21647002.4774   -3065417.13349  -2378834.74647                  21647000.6074
        48.7504         34.5004
  21584225.3604      40875.19149     28654.82847                  21584222.8174
        52.0004         38.5004
  23852393.6714    2562326.70749   1978855.64146                  23852392.2764
        41.5004         22.5004
  22047081.4634   -4577390.34449  -3548569.70347                  22047079.2954
        51.7504         37.5004
  22806530.4004   -4121048.52049  -3195420.35247                  22806527.1214
        46.5004         28.7504
  20797010.4864     -88429.28149    -71530.47748                  20797008.0024
        52.0004         41.5004
  24631516.7614     -53613.69159
        36.2504
 04  7 28 19 41  0.0000000  0  7G 1G11G14G20G23G25G16
  21640754.2564   -3098251.31649  -2404419.80547                  21640752.2964
        49.2504         33.5004
  21585169.3764      45833.95349     32518.79347                  21585166.5004
        51.5004         38.2504
  23857566.2834    2589507.92649   2000035.79746                  23857564.7254
        42.5004         23.0004
  22037457.8204   -4627962.61749  -3587976.65247                  22037456.1874
        51.2504         37.5004
  22797934.0054   -4166222.30949  -3230620.67647                  22797931.3084
        44.7504         29.5004
  20797641.6934     -85113.22749    -68946.52748                  20797639.3174
        52.2504         41.7504
  24620883.5224    -109490.06249    -68139.09456                  24620885.6234
        37.7504         18.5004
 04  7 28 19 41 15.0000000  0  7G 1G11G14G20G23G25G16
  21634512.4714   -3131051.21549  -2429978.13347                  21634510.3784
        49.0004         33.7504
  21586132.7154      50896.98449     36464.00847                  21586129.9854
        51.7504         38.5004
  23862734.9194    2616670.09849   2021201.11346                  23862733.1184
        42.0004         22.5004
  22027838.3664   -4678513.31249  -3627366.78947                  22027836.4204
        52.0004         38.0004
  22789341.7134   -4211373.86349  -3265803.66447                  22789338.7344
        45.5004         30.2504
  20798291.2594     -81697.77749    -66285.13748                  20798288.8084
        52.5004         41.7504
  24610243.7944    -165399.74248   -111704.97746                  24610244.8604
        35.5004         17.0004
 04  7 28 19 41 30.0000000  0  7G 1G11G14G20G23G25G16
  21628277.2774   -3163816.91449  -2455509.82847                  21628275.7954
        49.5004         34.2504
  21587115.9564      56064.02749     40490.26647                  21587113.4054
        51.0004         38.0004
  23867900.3554    2643813.10549   2042351.50846                  23867897.8074
        41.5004         22.2504
  22018223.0354   -4729042.16049  -3666739.91047                  22018220.9984
        51.5004         38.5004
  22780754.1014   -4256503.14549  -3300969.30547                  22780751.1394
        45.5004         30.5004
  20798960.0404     -78183.18049    -63546.48448                  20798957.5744
        51.5004         41.7504
  24599597.2764    -221342.34048   -155296.43746                  24599599.5374
        34.0004         15.5004
 04  7 28 19 41 45.0000000  0  7G 1G11G14G20G23G25G16
  21622048.6964   -3196548.73049  -2481015.12147                  21622047.2524
        48.5004         34.2504
  21588118.9934      61334.56349     44597.17247                  21588116.5574
        52.0004         38.5004
  23873061.9564    2670936.46149   2063486.56646                  23873060.0954
        41.0004         22.5004
  22008611.9284   -4779549.24649  -3706096.06247                  22008609.8584
        51.5004         37.5004
  22772170.6624   -4301610.34849  -3336117.75047                  22772167.1214
        46.0004         30.7504
  20799647.6354     -74569.95349    -60730.97748                  20799645.4154
        52.2504         41.5004
  24588945.7534    -277317.85248   -198913.67646                  24588947.8774
        34.5004         14.7504
 04  7 28 19 42  0.0000000  0  7G 1G11G14G20G23G25G16
  21615826.3644   -3229246.87549  -2506494.17647                  21615825.0454
        49.5004         33.5004
  21589141.4464      66708.27049     48784.47347                  21589139.1114
        51.5004         38.2504
  23878219.1504    2698040.05949   2084606.26646                  23878217.2774
        41.7504         21.7504
  21999005.0864   -4830034.48449  -3745435.19947                  21999002.8494
        52.0004         37.0004
  22763591.3134   -4346695.78149  -3371249.20747                  22763586.9814
        47.5004         31.5004
  20800354.0644     -70858.41049    -57838.85948                  20800351.7024
        52.2504         42.2504
  24578287.5084    -333325.95749   -242556.12546                  24578290.0904
        36.0004         17.0004
 04  7 28 19 42 15.0000000  0  7G 1G11G14G20G23G25G16
  21609610.9704   -3261909.94149  -2531945.89547                  21609609.9064
        49.0004         34.5004
  21590183.6084      72186.35949     53053.10247                  21590181.7004
        51.0004         38.2504
  23883373.7914    2725125.18849   2105711.57046                  23883370.8014
        40.5004         20.5004
  21989402.4694   -4880496.18749  -3784756.00447                  21989400.0494
        51.5004         37.5004
  22755016.4184   -4391757.95749  -3406362.55547                  22755011.8424
        47.5004         31.0004
  20801079.3414     -67047.19949    -54869.07448                  20801076.8034
        52.0004         42.5004
  24567624.6224    -389364.83649   -286222.66446                  24567625.9784
        37.7504         18.2504
 04  7 28 19 42 30.0000000  0  7G 1G11G14G20G23G25G16
  21603401.8424   -3294537.64149  -2557370.05547                  21603401.5264
        49.0004         35.0004
  21591246.1734      77769.01649     57403.21147                  21591244.2594
        50.5004         38.7504
  23888523.2494    2752192.19149   2126802.73846                  23888522.4014
        40.2504         22.5004
  21979804.4854   -4930933.73849  -3824057.98447                  21979802.1864
        51.0004         37.5004
  22746445.7024   -4436796.52049  -3441457.50047                  22746441.4164
        48.0004         32.0004
  20801823.3314     -63136.27749    -51821.60248                  20801821.0624
        51.7504         42.0004
  24556954.4374    -445433.92249   -329912.74246                  24556956.4764
        36.0004         17.5004
 04  7 28 19 42 45.0000000  0  7G 1G11G14G20G23G25G16
  21597199.9454   -3327129.53149  -2582766.31647                  21597199.4594
        48.7504         35.7504
  21592328.6184      83456.59449     61835.09047                  21592326.6434
        51.0004         38.7504
  23893670.6844    2779241.59049   2147880.13746                  23893670.2564
        40.2504         21.7504
  21970211.4024   -4981346.48049  -3863340.63347                  21970208.9224
        51.2504         37.0004
  22737879.8114   -4481810.94549  -3476533.65647                  22737876.1894
        47.5004         32.0004
  20802586.8264     -59125.46549    -48696.29348                  20802584.6004
        52.0004         42.2504
  24546278.8704    -501532.29748   -373625.59046                  24546280.6644
        35.5004         17.0004
 04  7 28 19 43  0.0000000  0  7G 1G11G14G20G23G25G16
  21591004.7894   -3359685.79349  -2608134.81647                  21591003.2894
        49.2504         35.0004
  21593430.4944      89248.62549     66348.35247                  21593428.6074
        51.0004         38.2504
  23898815.7244    2806273.15249   2168943.72346                  23898813.0104
        41.7504         21.5004
  21960622.9304   -5031734.19949  -3902603.78147                  21960620.5394
        51.2504         37.2504
  22729318.3834   -4526801.48049  -3511591.17647                  22729314.7464
        48.0004         32.2504
  20803369.2634     -55015.00849    -45493.33648                  20803366.8054
        52.2504         42.7504
  24535597.9394    -557659.78549   -417361.19546                  24535600.4234
        37.0004         17.0004
 04  7 28 19 43 15.0000000  0  7G 1G11G14G20G23G25G16
  21584816.3014   -3392206.63749  -2633475.71547                  21584814.7564
        49.5004         35.2504
  21594552.8624      95144.76649     70942.74647                  21594550.6584
        50.5004         38.0004
  23903955.1194    2833286.52749   2189993.12146                  23903953.3244
        40.7504         21.5004
  21951039.1074   -5082096.98049  -3941847.49247                  21951036.9534
        51.0004         37.2504
  22720761.4304   -4571768.23049  -3546630.16047                  22720758.1804
        48.0004         32.7504
  20804169.8004     -50805.33249    -42213.06248                  20804167.7714
        51.5004         42.5004
  24524912.9144    -613816.15649   -461119.23046                  24524916.3474
        39.5004         20.5004
 04  7 28 19 43 30.0000000  0  7G 1G11G14G20G23G25G16
  21578635.0154   -3424690.69549  -2658787.95347                  21578633.2114
        49.2504         35.0004
  21595694.7904     101146.42249     75619.35947                  21595692.5624
        50.7504         38.5004
  23909093.1594    2860283.30549   2211029.49646                  23909091.7254
        41.2504         22.0004
  21941460.3784   -5132432.94149  -3981070.30547                  21941458.1864
        51.0004         36.7504
  22712209.1954   -4616709.61349  -3581649.38347                  22712205.3454
        48.0004         32.5004
  20804990.3164     -46495.06649    -38854.41048                  20804987.8044
        52.0004         42.7504
  24514222.2124    -669999.55949   -504898.37546                  24514224.7714
        40.5004         24.2504
 04  7 28 19 43 45.0000000  0  7G 1G11G14G20G23G25G16
  21572459.9534   -3457139.34049  -2684072.59847                  21572458.1104
        48.7504         36.2504
  21596856.5494     107251.99249     80376.94947                  21596854.4754
        51.5004         39.0004
  23914226.7934    2887262.14549   2232051.94946                  23914224.7634
        40.5004         22.0004
  21931886.6124   -5182743.18749  -4020273.07847                  21931885.1184
        51.0004         37.0004
  22703661.7134   -4661626.98449  -3616649.89847                  22703658.1864
        48.7504         33.7504
  20805829.1684     -42085.68749    -35418.53548                  20805826.7294
        51.5004         42.0004
  24503524.9494    -726211.05149   -548699.34846                  24503528.0384
        40.0004         22.2504
 04  7 28 19 44  0.0000000  0  7G 1G11G14G20G23G25G16
  21566292.6494   -3489550.28149  -2709327.85247                  21566290.7134
        49.5004         36.0004
  21598038.7314     113463.62549     85217.18047                  21598036.5564
        50.7504         39.0004
  23919357.8444    2914225.23849   2253062.14846                  23919353.9184
        42.0004         20.0004
  21922318.3534   -5233025.07449  -4059453.75447                  21922316.0224
        51.5004         37.0004
  22695119.2504   -4706518.07449  -3651629.93447                  22695115.9064
        48.2504         33.0004
  20806687.8984     -37575.14549    -31903.81248                  20806684.9464
        51.7504         42.0004
  24492823.4624    -782447.87549   -592520.11746                  24492826.7754
        37.0004         21.7504
 04  7 28 19 44 15.0000000  0  7G 1G11G14G20G23G25G16
  21560132.1104   -3521923.69149  -2734553.86747                  21560130.6624
        49.2504         36.2504
  21599240.5304     119780.91849     90139.74647                  21599238.8754
        51.5004         38.2504
  23924485.7534    2941172.38749   2274059.91846                  23924483.1894
        41.5004         21.5004
  21912755.4794   -5283278.59049  -4098612.33247                  21912753.2464
        50.5004         37.5004
  22686581.9944   -4751383.02049  -3686589.59447                  22686578.0974
        48.7504         33.2504
  20807565.1174     -32963.93449    -28310.66048                  20807562.7514
        52.0004         42.2504
  24482116.1594    -838709.83249   -636360.39846                  24482120.0104
        36.2504         17.7504
 04  7 28 19 44 30.0000000  0  7G 1G11G14G20G23G25G16
  21553979.3524   -3554257.15649  -2759748.77347                  21553977.8254
        49.5004         36.5004
  21600463.1234     126206.10249     95146.37947                  21600461.6384
        50.2504         39.0004
  23929610.7714    2968106.02749   2295047.08246                  23929609.5494
        40.5004         21.7504
  21903198.5174   -5333501.03549  -4137746.68747                  21903196.2144
        50.7504         36.5004
  22678049.5494   -4796219.40249  -3721527.00047                  22678045.7344
        47.0004         31.7504
  20808462.3594     -28249.65249    -24637.19148                  20808459.8864
        52.0004         42.5004
  24471405.2854    -894994.18449   -680218.15646                  24471408.8334
        38.0004         19.0004
 04  7 28 19 44 45.0000000  0  7G 1G11G14G20G23G25G16
  21547833.8134   -3586550.89549  -2784912.69947                  21547832.2234
        49.7504         37.0004
  21601706.4024     132738.98049    100236.93447                  21601704.8394
        50.2504         38.0004
  23934734.2864    2995026.07849   2316023.75046                  23934732.4824
        42.5004         22.5004
  21893647.2364   -5383692.27349  -4176856.73047                  21893644.8944
        50.7504         36.2504
  22669523.2394   -4841027.25049  -3756442.18447                  22669518.7184
        47.7504         32.5004
  20809378.8514     -23432.60549    -20883.64548                  20809376.7404
        52.0004         42.5004
  24460691.0274    -951300.64149   -724093.23046                  24460693.6544
        39.7504         19.5004
 04  7 28 19 45  0.0000000  0  7G 1G11G14G20G23G25G16
  21541696.0224   -3618804.67249  -2810045.49647                  21541694.9634
        50.0004         36.7504
  21602970.0154     139379.50849    105411.37547                  21602968.2994
        50.5004         38.5004
  23939854.4444    3021932.69549   2336989.95746                  23939851.4534
        42.2504         22.2504
  21884102.1604   -5433851.81649  -4215942.08247                  21884099.6764
        50.5004         36.2504
  22661001.9654   -4885806.34849  -3791334.93747                  22660997.4324
        47.7504         32.0004
  20810314.9894     -18512.71949    -17049.96548                  20810312.8584
        51.7504         43.0004
  24449971.1194   -1007628.44149   -767984.85946                  24449974.8514
        38.7504         21.0004
 04  7 28 19 45 15.0000000  0  7G 1G11G14G20G23G25G16
  21535565.7024   -3651018.50449  -2835147.17647                  21535564.8164
        49.5004         37.2504
  21604254.5424     146127.43449    110669.50047                  21604252.4204
        50.7504         38.7504
  23944971.1444    3048825.78949   2357945.56646                  23944971.0794
        41.5004         22.2504
  21874563.1744   -5483979.43749  -4255002.55547                  21874560.8964
        50.5004         35.5004
  22652485.9624   -4930556.66449  -3826205.28547                  22652481.5144
        47.5004         32.5004
  20811270.8514     -13490.22349    -13136.32448                  20811268.6554
        51.5004         43.0004
  24439246.2544   -1063977.47748   -811892.93446                  24439252.2184
        35.5004         18.2504
 04  7 28 19 45 30.0000000  0  7G 1G11G14G20G23G25G16
  21529443.5294   -3683192.86349  -2860218.09447                  21529442.0184
        50.7504         38.0004
  21605558.5664     152982.36749    116010.99647                  21605557.1324
        51.5004         39.0004
  23950086.9614    3075704.88749   2378890.28546                  23950085.9944
        43.2504         24.0004
  21865030.0844   -5534075.18049  -4294038.18447                  21865027.1244
        50.2504         35.0004
  22643975.6744   -4975278.55949  -3861053.47747                  22643971.3424
        48.2504         32.0004
  20812245.8344      -8365.61749     -9143.12148                  20812243.5784
        52.2504         43.0004
  24428521.0694   -1120347.50849   -855817.43746                  24428524.6944
        36.5004         17.7504
 04  7 28 19 45 45.0000000  0  7G 1G11G14G20G23G25G16
  21523328.5084   -3715327.11349  -2885257.74247                  21523327.2064
        50.2504         37.5004
  21606883.5424     159944.66449    121436.16047                  21606882.0064
        51.0004         38.7504
  23955198.7264    3102570.63749   2399824.64546                  23955196.9934
        43.2504         22.2504
  21855503.4394   -5584138.13349  -4333048.26247                  21855501.0274
        51.0004         35.2504
  22635471.2814   -5019971.38349  -3895879.02047                  22635466.6524
        48.5004         32.2504
  20813240.5984      -3138.51249     -5070.05548                  20813238.6234
        51.7504         42.7504
  24417790.5444   -1176737.58649   -899757.56246                  24417793.5304
        40.0004         18.5004
 04  7 28 19 46  0.0000000  0  7G 1G11G14G20G23G25G16
  21517220.8934   -3747423.32449  -2910267.76247                  21517219.3544
        50.2504         37.5004
  21608228.8074     167012.03549    126943.19547                  21608226.8374
        51.5004         39.0004
  23960308.3254    3129421.09049   2420747.05546                  23960306.7934
        42.2504         22.7504
  21845982.7254   -5634170.19549  -4372034.27347                  21845979.8684
        50.2504         35.0004
  22626971.6254   -5064637.09449  -3930683.43047                  22626966.9494
        48.5004         32.5004
  20814254.5734       2188.85949      -918.85548                  20814252.4644
        52.2504         43.0004
  24407055.7744   -1233149.43049   -943714.69946                  24407057.6344
        38.0004         17.0004
 04  7 28 19 46 15.0000000  0  7G 1G11G14G20G23G25G16
  21511120.0674   -3779481.11749  -2935247.84447                  21511118.9184
        50.0004         37.0004
  21609593.4404     174184.77749    132532.34047                  21609591.7314
        52.2504         38.5004
  23965416.0544    3156256.52049   2441657.74247                  23965414.9734
        44.5004         25.7504
  21836467.7134   -5684170.57049  -4410995.59447                  21836464.7194
        51.0004         34.2504
  22618476.8144   -5109275.33649  -3965466.44547                  22618472.6174
        48.0004         32.5004
  20815287.3004       7616.69149      3310.62948                  20815284.8794
        52.2504         43.7504
  24396315.6544   -1289582.28949   -987688.19946                  24396318.7424
        36.7504         15.5004
 04  7 28 19 46 30.0000000  0  7G 1G11G14G20G23G25G16
  21505027.0034   -3811499.90249  -2960197.52747                  21505026.0334
        50.2504         37.7504
  21610978.7724     181463.37549    138203.96947                  21610976.6054
        51.2504         38.2504
  23970518.4984    3183077.53549   2462557.26246                  23970518.1394
        43.7504         22.5004
  21826959.2634   -5734138.31249  -4449931.48847                  21826956.7164
        50.7504         34.5004
  22609987.9154   -5153885.49249  -4000227.57447                  22609983.6304
        48.5004         32.7504
  20816339.6034      13145.42249      7618.73048                  20816337.1574
        52.5004         43.0004
  24385573.8384   -1346035.15249  -1031677.22746                  24385575.9394
        38.0004         15.5004
 04  7 28 19 46 45.0000000  0  7G 1G11G14G20G23G25G16
  21498941.1834   -3843481.89849  -2985118.54747                  21498939.7224
        49.5004         37.7504
  21612383.3094     188845.33249    143956.13347                  21612381.1284
        52.0004         38.0004
  23975620.5694    3209881.94149   2483443.78946                  23975617.6594
        44.0004         21.7504
  21817457.0364   -5784075.46949  -4488843.52747                  21817453.6844
        51.0004         34.2504
  22601503.8694   -5198469.66449  -4034968.44547                  22601499.9544
        48.0004         32.7504
  20817410.1694      18772.78149     12003.68448                  20817407.7544
        51.7504         43.0004
  24374827.6774   -1402509.61749  -1075683.16446                  24374830.3654
        41.5004         19.0004
 04  7 28 19 47  0.0000000  0  7G 1G11G14G20G23G25G16
  21492862.2194   -3875428.54349  -3010012.02747                  21492860.2444
        51.0004         37.7504
  21613807.6764     196329.12549    149787.65247                  21613805.1404
        52.0004         38.2504
  23980718.0174    3236668.32849   2504316.28547                  23980716.3554
        45.5004         26.0004
  21807959.7034   -5833983.10549  -4527732.59047                  21807956.7874
        51.0004         34.2504
  22593024.2774   -5243029.25049  -4069690.16847                  22593020.1714
        48.7504         32.7504
  20818499.6874      24497.05549     16464.15248                  20818497.3594
        52.0004         42.7504
  24364076.3514   -1459006.83649  -1119706.77746                  24364079.4454
        40.5004         19.2504
 04  7 28 19 47 15.0000000  0  7G 1G11G14G20G23G25G16
  21486789.4264   -3907340.53949  -3034878.50447                  21486787.2064
        50.0004         38.2504
  21615250.9924     203913.89549    155697.85247                  21615248.3564
        52.0004         38.7504
  23985810.0984    3263436.07049   2525174.23046                  23985810.0724
        43.2504         24.2504
  21798468.1784   -5883861.62549  -4566598.96147                  21798465.6854
        50.7504         34.5004
  22584549.4464   -5287564.99249  -4104393.31247                  22584545.4694
        48.0004         32.2504
  20819607.2904      30317.44149     20999.52748                  20819604.9624
        52.0004         43.0004
  24353319.8584   -1515527.18449  -1163748.48846                  24353323.2264
        38.5004         16.2504
 04  7 28 19 47 30.0000000  0  7G 1G11G14G20G23G25G16
  21480722.8774   -3939219.16849  -3059718.98047                  21480721.7384
        50.0004         37.2504
  21616713.2594     211598.07049    161685.51647                  21616710.7584
        51.5004         39.0004
  23990900.5874    3290183.83649   2546016.62946                  23990899.0574
        44.0004         21.2504
  21788981.8144   -5933712.01649  -4605443.40247                  21788979.6204
        50.2504         34.5004
  22576079.0994   -5332078.00049  -4139078.73847                  22576074.4984
        48.5004         33.2504
  20820732.8214      36232.39149     25608.57448                  20820730.3064
        51.2504         43.0004
  24342558.6574   -1572071.63649  -1207808.97746                  24342562.3274
        38.2504         14.0004
 04  7 28 19 47 45.0000000  0  7G 1G11G14G20G23G25G16
  21474662.9144   -3971065.02349  -3084533.91847                  21474661.2324
        49.7504         37.7504
  21618194.3064     219380.93049    167750.07447                  21618191.9614
        52.0004         37.7504
  23995987.4774    3316910.87949   2566842.93846                  23995985.2064
        44.5004         24.0004
  21779501.0614   -5983534.64149  -4644266.20747                  21779499.0004
        50.0004         34.5004
  22567612.6044   -5376568.86749  -4173746.92247                  22567607.9004
        48.0004         33.5004
  20821876.2294      42241.18849     30290.75448                  20821873.6274
        52.0004         43.0004
  24331795.8834   -1628639.99649  -1251888.03946                  24331798.6724
        42.5004         19.2504
 04  7 28 19 48  0.0000000  0  7G 1G11G14G20G23G25G16
  21468609.1954   -4002877.70349  -3109322.99647                  21468607.4914
        50.2504         38.2504
  21619694.3574     227262.75449    173891.74247                  21619691.9214
        52.0004         38.0004
  24001068.4414    3343617.71149   2587653.43046                  24001068.6594
        42.0004         24.0004
  21770025.2454   -6033328.84449  -4683066.86347                  21770023.5754
        50.5004         34.7504
  22559150.4154   -5421037.18049  -4208397.52047                  22559146.1194
        48.5004         33.5004
  20823037.5454      48344.00049     35046.19548                  20823035.0954
        51.7504         43.0004
  24321027.4354   -1685231.71949  -1295985.30546                  24321029.8914
        43.0004         22.0004
 04  7 28 19 48 15.0000000  0  7G 1G11G14G20G23G25G16
  21462561.7394   -4034657.74249  -3134086.65247                  21462560.3324
        50.0004         38.5004
  21621212.9004     235242.71949    180109.89147                  21621210.1364
        51.2504         38.2504
  24006147.5374    3370303.94949   2608447.80546                  24006146.0174
        42.5004         21.0004
  21760554.9514   -6083094.69549  -4721845.43447                  21760552.5864
        50.2504         34.5004
  22550692.9844   -5465483.40649  -4243030.91447                  22550688.1664
        48.0004         33.0004
  20824216.5804      54540.26249     39874.45348                  20824214.3524
        51.5004         43.0004
  24310252.7214   -1741846.83249  -1340100.74646                  24310256.6624
        39.5004         19.2504
 04  7 28 19 48 30.0000000  0  7G 1G11G14G20G23G25G16
  21456520.4904   -4066403.87949  -3158823.88747                  21456519.5164
        50.5004         39.0004
  21622750.2274     243322.08249    186405.48847                  21622747.9014
        52.5004         38.2504
  24011222.7414    3396970.70749   2629227.14546                  24011219.6284
        43.5004         22.2504
  21751090.6174   -6132830.68449  -4760600.71547                  21751089.1314
        50.5004         34.5004
  22542239.1664   -5509906.19149  -4277646.03547                  22542234.7744
        48.0004         33.2504
  20825413.7204      60831.16049     44776.44948                  20825410.8494
        51.0004         43.0004
  24299473.7124   -1798483.82449
        37.2504
 04  7 28 19 48 45.0000000  0  7G 1G11G14G20G23G25G16
  21450485.4394   -4098118.66849  -3183536.69947                  21450484.4164
        50.2504         38.5004
  21624306.1474     251498.08649    192776.39147                  21624303.5474
        52.5004         38.5004
  24016291.2204    3423615.49649   2649989.34446                  24016290.5994
        39.2504         22.2504
  21741631.7254   -6182539.04749  -4799334.48447                  21741628.9244
        50.5004         34.0004
  22533789.3544   -5554308.03549  -4312244.84047                  22533785.1454
        47.7504         32.7504
  20826628.3314      67213.86349     49749.98448                  20826625.9354
        52.0004         43.0004
  24288693.2754   -1855144.58249
        42.7504
 04  7 28 19 49  0.0000000  0  7G 1G11G14G20G23G25G16
  21444456.1874   -4129801.49249  -3208224.59847                  21444455.2484
        49.5004         38.5004
  21625880.4764     259771.22349    199222.98047                  21625878.3034
        52.2504         38.2504
  24021358.6754    3450239.02349   2670734.81346                  24021358.2334
        40.5004         21.5004
  21732178.2894   -6232218.87549  -4838046.01647                  21732175.3764
        51.0004         34.0004
  22525344.1994   -5598688.32449  -4346826.83647                  22525340.8084
        48.7504         33.7504
  20827860.2874      73688.85949     54795.43448                  20827857.9474
        51.5004         42.2504
  24277907.2184   -1911828.14849  -1472553.39156                  24277903.4524
        44.5004         25.5004
 04  7 28 19 49 15.0000000  0  7G 1G11G14G20G23G25G16
  21438433.2904   -4161451.12149  -3232886.63347                  21438432.3694
        50.0004         38.2504
  21627473.5474     268142.34849    205745.92647                  21627471.2604
        52.2504         37.7504
  24026421.3724    3476842.32049   2691464.70346                  24026419.6844
        41.5004         21.5004
  21722729.6394   -6281868.65249  -4876734.14547                  21722727.4654
        50.5004         33.0004
  22516902.8824   -5643045.72349  -4381391.01247                  22516899.6864
        47.5004         33.2504
  20829110.1224      80257.10249     59913.54748                  20829108.1264
        51.7504         43.0004
  24267116.8144   -1968533.02749  -1516738.82046                  24267118.2394
        39.5004         22.2504
 04  7 28 19 49 30.0000000  0  7G 1G11G14G20G23G25G16
  21432417.5354   -4193066.01649  -3257521.60547                  21432416.0354
        49.5004         38.2504
  21629085.2134     276612.98449    212346.41047                  21629082.5944
        52.2504         37.5004
  24031478.4684    3503427.04749   2712180.08646                  24031477.7034
        36.2504         18.5004
  21713288.1164   -6331486.50449  -4915397.40247                  21713284.6294
        51.2504         33.0004
  22508467.4174   -5687378.72749  -4415936.17247                  22508463.3954
        48.2504         32.7504
  20830378.0144      86919.98849     65105.40248                  20830375.3564
        51.7504         42.5004
  24256319.9604   -2025257.21949  -1560939.22746                  24256323.5824
        38.5004         18.5004
 04  7 28 19 49 45.0000000  0  7G 1G11G14G20G23G25G16
  21426407.5074   -4224647.64849  -3282130.65247                  21426406.3324
        49.2504         38.0004
  21630715.5574     285181.39149    219023.08247                  21630713.3684
        52.0004         37.7504
  24036535.4844    3529991.80949   2732879.81646                  24036533.3664
        38.7504         20.0004
  21703851.6274   -6381073.65649  -4954036.73047                  21703848.8134
        50.5004         33.0004
  22500035.3104   -5731688.76249  -4450463.45747                  22500031.1474
        48.5004         33.5004
  20831663.5074      93675.91049     70369.75848                  20831661.5864
        51.7504         42.2504
  24245523.2344   -2082001.69949  -1605155.72346                  24245523.4694
        43.7504         16.2504
 04  7 28 19 50  0.0000000  0  7G 1G11G14G20G23G25G16
  21420404.3114   -4256194.28549  -3306712.43747                  21420403.3534
        49.5004         38.0004
  21632365.2314     293849.19949    225777.21147                  21632362.9024
        51.2504         38.0004
  24041586.9824    3556538.14549   2753565.26246                  24041585.8074
        40.5004         22.2504
  21694421.6594   -6430627.99249  -4992650.47347                  21694418.7424
        50.2504         32.5004
  22491607.9274   -5775974.05149  -4484971.44147                  22491604.4104
        48.5004         33.5004
  20832967.1494     100526.48049     75707.86348                  20832964.9984
        51.0004         42.5004
  24234722.4664   -2138764.25049  -1649386.19946                  24234722.6414
        42.0004         22.2504
 04  7 28 19 50 15.0000000  0  7G 1G11G14G20G23G25G16
  21414407.8744   -4287705.94949  -3331266.97347                  21414406.7594
        49.5004         38.0004
  21634033.3574     302616.18049    232608.61747                  21634030.9864
        52.0004         38.0004
  24046632.5054    3583066.28948   2774236.50046                  24046633.2994
        35.7504         20.0004
  21684998.0684   -6480149.26649  -5031238.46547                  21684995.3344
        50.2504         32.5004
  22483185.6124   -5820234.46549  -4519460.04747                  22483181.0734
        49.0004         33.2504
  20834288.8914     107471.39849     81119.48448                  20834286.6074
        51.5004         42.7504
  24223917.3344   -2195544.66449  -1693630.46146                  24223919.1234
        38.0004         22.5004
 04  7 28 19 50 30.0000000  0  7G 1G11G14G20G23G25G16
  21408418.2024   -4319182.16049  -3355793.87947                  21408416.9394
        50.0004         38.0004
  21635720.7274     311482.65249    239517.55547                  21635718.4614
        51.2504         37.7504
  24051680.0544    3609576.77349   2794894.00446                  24051677.4424
        40.5004         19.5004
  21675580.9974   -6529636.71149  -5069800.10547                  21675577.9424
        50.0004         32.5004
  22474767.9624   -5864469.41849  -4553928.80947                  22474763.6434
        48.7504         33.7504
  20835628.4314     114511.03549     86604.92248                  20835626.3974
        51.5004         42.2504
  24213105.6744   -2252342.13748  -1737887.86346                  24213110.9674
        35.5004         20.0004
 04  7 28 19 50 45.0000000  0  7G 1G11G14G20G23G25G16
  21402435.4594   -4350620.63349  -3380291.37947                  21402434.5974
        48.5004         38.0004
  21637427.0024     320450.64549    246505.59447                  21637425.2134
        51.7504         38.0004
  24056721.6544    3636071.54349   2815539.29746                  24056719.9444
        41.5004         23.2504
  21666170.5894   -6579087.69549  -5108333.32447                  21666167.3694
        50.7504         32.7504
  22466355.7064   -5908676.71149  -4588376.01647                  22466351.4144
        48.7504         33.2504
  20836986.6894     121647.63349     92165.90648                  20836984.5834
        51.7504         41.7504
  24202297.2104   -2309153.48449  -1782156.35546                  24202297.8054
        41.0004         17.7504
 04  7 28 19 51  0.0000000  0  7G 1G11G14G20G23G25G16
  21396460.1024   -4382019.97749  -3404758.39147                  21396459.1194
        48.5004         38.0004
  21639152.8604     329521.47749    253573.76647                  21639151.5634
        49.5004         37.7504
  24061759.3784    3662552.39849   2836173.65246                  24061759.8004
        37.5004         22.2504
  21656767.7954   -6628500.52749  -5146836.81247                  21656764.8044
        50.0004         32.5004
  22457949.2074   -5952854.84849  -4622800.50447                  22457944.6984
        48.5004         34.0004
  20838363.3874     128882.35549     97803.34848                  20838361.2224
        51.0004         42.5004
  24191484.6904   -2365977.18749  -1826434.56646                  24191483.1164
        39.7504         17.5004
 04  7 28 19 51 15.0000000  0  7G 1G11G14G20G23G25G16
  21390492.4674   -4413382.00849  -3429196.33647                  21390491.3044
        48.5004         37.5004
  21640898.5054     338693.05549    260720.44547                  21640896.6694
        51.0004         37.5004
  24066797.4284    3689017.46949   2856795.71146                  24066795.7254
        41.0004         22.2504
  21647371.7954   -6677876.65249  -5185311.70747                  21647368.8514
        49.7504         32.5004
  22449546.7404   -5997005.47349  -4657203.55947                  22449543.3334
        48.0004         34.0004
  20839758.3694     136213.14549    103515.65248                  20839756.1734
        51.5004         42.2504
  24180666.4294   -2422814.63758  -1870723.26656                  24180668.2964
        31.7504         17.0004
 04  7 28 19 51 30.0000000  0  7G 1G11G14G20G23G25G16
  21384531.4644   -4444707.28949  -3453605.64147                  21384530.0614
        49.0004         37.7504
  21642662.8674     347964.78549    267945.16447                  21642661.1654
        50.2504         37.5004
  24071829.7174    3715465.89549   2877404.94546                  24071828.0954
        42.0004         23.0004
  21637982.6284   -6727216.39849  -5223758.23447                  21637979.7674
        50.0004         32.5004
  22441150.3594   -6041129.10549  -4691585.57047                  22441146.7514
        48.2504         33.5004
  20841171.5764     143639.23449    109302.21148                  20841169.0214
        51.0004         42.5004
  24169848.6554   -2479665.98049  -1915022.67646                  24169851.0834
        38.2504         19.0004
 04  7 28 19 51 45.0000000  0  7G 1G11G14G20G23G25G16
  21378577.7134   -4475994.41849  -3477985.21147                  21378576.2954
        49.5004         38.0004
  21644446.3914     357337.75449    275248.77047                  21644444.6004
        51.2504         37.5004
  24076858.7304    3741899.27349   2898002.33646                  24076859.5904
        38.7504         22.5004
  21628601.0124   -6776518.12149  -5262175.14547                  21628598.2964
        50.7504         31.5004
  22432759.6554   -6085224.48849  -4725945.59447                  22432755.4874
        48.5004         33.5004
  20842602.8854     151161.98049    115164.09448                  20842600.7774
        51.5004         42.5004
  24159028.6644   -2536529.25049  -1959331.55546                  24159029.9304
        40.5004         21.2504
 04  7 28 19 52  0.0000000  0  7G 1G11G14G20G23G25G16
  21372631.4384   -4507243.00449  -3502334.75047                  21372629.8224
        48.5004         37.7504
  21646249.0814     366812.25049    282631.48447                  21646247.4514
        50.7504         37.0004
  24081888.1744    3768318.18449   2918588.40247                  24081887.0614
        42.5004         26.0004
  21619226.6384   -6825781.02049  -5300561.80147                  21619224.2474
        50.7504         33.0004
  22424373.6204   -6129291.04349  -4760283.12147                  22424369.8294
        48.0004         32.5004
  20844052.9634     158781.54349    121101.40648                  20844050.5614
        51.5004         42.5004
  24148205.3184   -2593403.64849  -2003649.16846                  24148205.6794
        36.2504         18.5004
 04  7 28 19 52 15.0000000  0  7G 1G11G14G20G23G25G16
  21366692.4194   -4538452.93449  -3526654.16447                  21366690.9114
        48.7504         37.7504
  21648071.6664     376388.04749    290093.14147                  21648069.3954
        50.0004         36.7504
  24086912.5094    3794722.60549   2939163.27746                  24086910.3704
        42.2504         25.5004
  21609859.7244   -6875004.69149  -5338917.89147                  21609856.6034
        50.5004         32.0004
  22415993.5044   -6173328.62549  -4794598.09047                  22415989.4194
        47.0004         32.5004
  20845521.5524     166497.71149    127114.00848                  20845518.8344
        51.7504         42.0004
  24137378.9344   -2650289.06259  -2047975.17256                  24137380.1744
        37.5004         17.7504
 04  7 28 19 52 30.0000000  0  7G 1G11G14G20G23G25G16
  21360760.7434   -4569623.49649  -3550942.90647                  21360759.3154
        49.5004         37.5004
  21649913.3064     386065.84049    297634.27347                  21649910.9504
        50.0004         36.5004
  24091932.7474    3821113.27749   2959727.46546                  24091931.6864
        39.0004         22.0004
  21600500.2314   -6924188.14149  -5377242.64147                  21600497.2234
        49.7504         32.0004
  22407619.4084   -6217336.61749  -4828889.99247                  22407614.6704
        47.0004         32.0004
  20847008.1584     174311.10549    133202.36748                  20847005.4754
        51.0004         42.2504
  24126553.9604   -2707183.98449  -2092308.75046                  24126554.6914
        42.5004         22.5004
 04  7 28 19 52 45.0000000  0  7G 1G11G14G20G23G25G16
  21354836.7054   -4600753.55949  -3575200.09447                  21354835.4804
        49.0004         37.5004
  21651774.3484     395846.50849    305255.56647                  21651771.9464
        50.2504         36.0004
  24096953.7354    3847491.44949   2980281.82046                  24096951.6314
        40.5004         23.7504
  21591149.1004   -6973329.84049  -5415534.85947                  21591146.6234
        49.5004         32.5004
  22399250.3494   -6261313.72749  -4863157.83647                  22399245.8384
        46.5004         32.0004
  20848513.9044     182222.76649    139367.29348                  20848511.0814
        52.0004         42.0004
  24115725.4884   -2764086.78149  -2136648.42646                  24115727.3314
        41.5004         22.7504
 04  7 28 19 53  0.0000000  0  7G 1G11G14G20G23G25G16
  21348921.0944   -4631841.49249  -3599424.44547                  21348919.6504
        49.5004         38.0004
  21653655.6764     405731.43849    312958.10947                  21653653.0674
        49.5004         36.5004
  24101971.9064    3873858.69949   3000827.71947                  24101970.7894
        42.7504         27.0004
  21581805.9044   -7022427.84449  -5453793.03147                  21581803.2964
        49.5004         32.0004
  22390887.8374   -6305258.23049  -4897400.27747                  22390883.2234
        46.7504         32.0004
  20850038.4974     190234.17249    145609.95348                  20850035.8714
        52.0004         42.2504
  24104894.5864   -2820995.64149  -2180992.74246                  24104898.2924
        38.7504         20.5004
 04  7 28 19 53 15.0000000  0  7G 1G11G14G20G23G25G16
  21343013.3594   -4662887.55949  -3623616.18047                  21343011.7914
        49.5004         38.0004
  21655556.2574     415720.23049    320741.57847                  21655553.7684
        49.2504         36.5004
  24106985.1904    3900214.74649   3021364.89146                  24106985.3924
        40.0004         23.7504
  21572471.3854   -7071482.14549  -5492017.13747                  21572469.0074
        48.7504         32.0004
  22382531.6574   -6349170.38749  -4931617.52047                  22382527.1354
        46.7504         32.2504
  20851581.6694     198344.84449    151929.95748                  20851579.2144
        52.0004         42.0004
  24094064.9064   -2877910.29749  -2225341.66046                  24094066.7714
        43.5004         20.5004
 04  7 28 19 53 30.0000000  0  7G 1G11G14G20G23G25G16
  21337114.1914   -4693888.72749  -3647772.92247                  21337112.3434
        50.0004         38.0004
  21657477.8114     425815.77749    328608.22747                  21657474.9614
        49.5004         36.7504
  24112000.1664    3926562.68849   3041895.72746                  24111998.3804
        41.5004         20.5004
  21563145.5004   -7120489.47749  -5530204.64847                  21563143.0474
        48.2504         31.7504
  22374182.5674   -6393047.15649  -4965807.18047                  22374178.2794
        47.5004         32.5004
  20853144.4594     206557.65649    158329.55148                  20853142.0434
        52.2504         42.0004
  24083233.5414   -2934827.21149  -2269692.40246                  24083234.9784
        42.0004         22.5004
 04  7 28 19 53 45.0000000  0  7G 1G11G14G20G23G25G16
  21331222.9464   -4724846.94949  -3671896.20747                  21331221.3654
        49.7504         38.2504
  21659418.4154     436015.89549    336556.35947                  21659416.3554
        49.5004         37.0004
  24117012.8674    3952900.43449   3062418.64547                  24117011.1744
        44.2504         26.5004
  21553828.1514   -7169451.36749  -5568356.75447                  21553825.4104
        47.5004         31.5004
  22365839.5174   -6436890.34049  -4999970.67647                  22365835.1374
        47.2504         32.7504
  20854726.4794     214870.43049    164807.03148                  20854723.9244
        52.2504         42.5004
  24072401.3494   -2991748.04749  -2314046.07046                  24072404.0434
        39.7504         21.7504
 04  7 28 19 54  0.0000000  0  7G 1G11G14G20G23G25G16
  21325340.2144   -4755760.46549  -3695984.64847                  21325338.6534
        50.0004         38.0004
  21661379.7644     446322.18849    344587.22747                  21661377.6524
        49.7504         37.5004
  24122021.9794    3979229.89549   3082935.07047                  24122022.1544
        42.0004         26.0004
  21544519.8554   -7218365.77749  -5606471.87547                  21544517.6604
        47.2504         31.7504
  22357503.5424   -6480698.12549  -5034106.57047                  22357499.0534
        48.0004         32.5004
  20856327.7194     223284.88749    171363.74648                  20856325.3534
        52.5004         42.7504
  24061568.9894   -3048670.43049  -2358400.95346                  24061573.1254
        41.5004         21.0004
 04  7 28 19 54 15.0000000  0  7G 1G11G14G20G23G25G16
  21319466.0844   -4786628.44549  -3720037.60547                  21319464.4574
        50.0004         37.7504
  21663361.5364     456735.23049    352701.28547                  21663359.7994
        49.0004         37.7504
  24127030.5254    4005552.08649   3103445.73446                  24127031.1324
        39.0004         21.7504
  21535220.9074   -7267231.54749  -5644549.07047                  21535218.5554
        46.2504         30.5004
  22349173.7024   -6524469.71549  -5068214.28947                  22349169.4494
        47.7504         31.7504
  20857948.3774     231801.61349    178000.16048                  20857945.8174
        52.5004         42.5004
  24050737.2254   -3105593.11749  -2402756.12546                  24050739.5234
        44.0004         19.5004
 04  7 28 19 54 30.0000000  0  7G 1G11G14G20G23G25G16
  21313600.1754   -4817452.14849  -3744056.06247                  21313599.0174
        49.7504         37.5004
  21665362.7934     467253.66049    360897.44947                  21665361.1664
        48.2504         37.7504
  24132039.5124    4031865.59849   3123949.84846                  24132036.9984
        42.7504         22.7504
  21525931.2804   -7316049.68049  -5682589.16847                  21525928.9264
        44.7504         30.7504
  22340850.2804   -6568206.32449  -5102294.73047                  22340846.7784
        46.5004         32.0004
  20859588.3534     240419.01649    184715.01648                  20859585.8294
        52.2504         42.2504
  24039905.1024   -3162517.10249  -2447112.42646                  24039904.2914
        42.7504         18.2504
 04  7 28 19 54 45.0000000  0  7G 1G11G14G20G23G25G16
  21307743.5064   -4848229.43049  -3768038.34847                  21307742.3734
        50.0004         37.2504
  21667384.7464     477879.33649    369177.19547                  21667383.0004
        49.0004         38.0004
  24137044.8624    4058172.59849   3144448.83646                  24137043.2684
        41.5004         25.5004
  21516650.8424   -7364817.67249  -5720590.18747                  21516647.9204
        45.0004         30.5004
  22332534.8184   -6611905.72749  -5136346.17647                  22332531.0054
        47.7504         33.0004
  20861247.5934     249139.14149    191509.92248                  20861245.0054
        52.5004         42.2504
  24029071.9524   -3219439.81249  -2491467.55546                  24029072.9754
        40.7504         19.2504
 04  7 28 19 55  0.0000000  0  7G 1G11G14G20G23G25G16
  21301896.1444   -4878959.25449  -3791983.64847                  21301894.6854
        49.7504         37.2504
  21669427.2944     488613.08249    377541.14847                  21669425.7254
        50.0004         37.5004
  24142048.3734    4084474.17249   3164943.50046                  24142049.9144
        37.7504         22.0004
  21507380.5614   -7413534.17249  -5758551.09047                  21507377.0994
        46.5004         30.5004
  22324226.2384   -6655566.83249  -5170367.78147                  22324222.0854
        47.2504         32.2504
  20862926.8124     257962.73849    198385.45348                  20862924.2414
        52.2504         42.5004
  24018240.9444   -3276359.76249  -2535820.57446                  24018241.6254
        42.5004         17.5004
 04  7 28 19 55 15.0000000  0  7G 1G11G14G20G23G25G16
  21296057.4564   -4909642.24649  -3815892.45347                  21296055.9794
        49.5004         38.0004
  21671490.5014     499454.08649    385988.68047                  21671488.7814
        49.5004         38.2504
  24147053.7074    4110769.74249   3185433.43846                  24147054.1634
        39.7504         24.0004
  21498119.6364   -7462199.55149  -5796472.15647                  21498116.7554
        45.5004         30.7504
  22315925.3684   -6699190.17249  -5204359.96147                  22315920.8164
        48.2504         32.2504
  20864625.2044     266889.07449    205341.03948                  20864622.9754
        52.5004         43.0004
  24007410.6584   -3333277.05949  -2580171.61746                  24007407.9344
        44.2504         14.7504
 04  7 28 19 55 30.0000000  0  7G 1G11G14G20G23G25G16
  21290227.5104   -4940279.54349  -3839765.66047                  21290226.1234
        50.5004         37.5004
  21673573.6804     510401.10549    394518.81647                  21673571.6824
        49.5004         38.0004
  24152056.9534    4137058.01249   3205917.87146                  24152054.9234
        42.5004         22.5004
  21488868.2954   -7510814.55149  -5834353.97747                  21488865.7274
        45.5004         31.2504
  22307630.7704   -6742776.86349  -5238323.59447                  22307626.7424
        48.0004         32.7504
  20866342.9824     275916.82449    212375.64848                  20866340.6164
        52.5004         42.5004
  23996579.2154   -3390192.50849  -2624521.25446                  23996574.7364
        41.5004         14.0004
 04  7 28 19 55 45.0000000  0  7G 1G11G14G20G23G25G16
  21284405.9724   -4970871.00449  -3863603.14847                  21284404.5204
        50.0004         36.7504
  21675677.0914     521453.95349    403131.42247                  21675675.1604
        49.7504         38.2504
  24157057.6714    4163339.35549   3226396.91446                  24157055.9234
        40.0004         22.2504
  21479627.3314   -7559378.84449  -5872196.27747                  21479624.5094
        45.7504         30.5004
  22299343.3364   -6786326.68449  -5272258.49247                  22299339.7564
        47.5004         32.2504
  20868080.2964     285046.08649    219489.36348                  20868077.9284
        52.0004         42.2504
  23985749.3404   -3447105.52349  -2668868.80946                  23985745.7954
        42.5004         15.5004
 04  7 28 19 56  0.0000000  0  7G 1G11G14G20G23G25G16
  21278593.3374   -5001415.33649  -3887403.91447                  21278592.1354
        50.0004         37.0004
  21677800.4834     532613.78549    411827.38747                  21677798.5064
        49.7504         39.2504
  24162056.4464    4189615.21549   3246871.50446                  24162056.4484
        37.5004         22.2504
  21470395.9574   -7607890.70349  -5909997.72347                  21470392.3944
        45.5004         30.2504
  22291063.2054   -6829838.28549  -5306163.60247                  22291059.5454
        47.5004         33.0004
  20869837.0834     294277.84049    226682.93448                  20869834.7834
        51.5004         42.5004
  23974920.5554   -3504014.28549  -2713213.16446                  23974917.3544
        43.2504         17.0004
 04  7 28 19 56 15.0000000  0  7G 1G11G14G20G23G25G16
  21272790.0154   -5031912.58249  -3911167.99247                  21272788.9114
        49.5004         37.5004
  21679944.4854     543880.38349    420606.55948                  21679942.6554
        50.2504         39.5004
  24167057.5804    4215885.30149   3267341.63746                  24167056.0974
        41.2504         25.0004
  21461174.0424   -7656349.79349  -5947758.05547                  21461171.7844
        45.7504         30.5004
  22282790.7264   -6873311.71149  -5340038.96547                  22282786.2704
        47.5004         33.0004
  20871613.4254     303611.92649    233956.24648                  20871611.0494
        52.0004         41.7504
  23964091.4824   -3560918.54749  -2757554.00446                  23964087.8164
        40.0004         14.7504
 04  7 28 19 56 30.0000000  0  7G 1G11G14G20G23G25G16
  21266995.0594   -5062364.43449  -3934896.69547                  21266993.7854
        50.0004         36.7504
  21682108.8264     555251.85549    429467.44147                  21682106.6444
        51.0004         38.7504
  24172054.7784    4242147.88749   3287806.03546                  24172053.0744
        42.0004         22.5004
  21451962.5234   -7704757.59849  -5985478.41447                  21451959.7854
        46.2504         31.0004
  22274525.0664   -6916748.60249  -5373885.85547                  22274520.6234
        47.2504         32.5004
  20873408.5584     313046.53549    241307.89548                  20873406.1664
        52.2504         42.5004
  23953262.6094   -3617819.60249  -2801892.28546                  23953259.9904
        40.0004         16.2504
 04  7 28 19 56 45.0000000  0  7G 1G11G14G20G23G25G16
  21261209.7284   -5092768.16449  -3958587.90247                  21261207.6584
        50.7504         36.5004
  21684292.5454     566730.65249    438411.94947                  21684290.9744
        50.7504         38.2504
  24177049.5964    4268405.88749   3308266.81646                  24177048.8614
        36.0004         20.0004
  21442761.3054   -7753111.12949  -6023156.48447                  21442759.1534
        47.2504         31.2504
  22266266.8064   -6960146.10949  -5407702.07447                  22266262.4314
        47.2504         33.0004
  20875223.6974     322584.24649    248739.87548                  20875221.3934
        52.5004         42.5004
  23942435.9854   -3674714.21549  -2846225.55946                  23942435.6804
        41.0004         17.7504
 04  7 28 19 57  0.0000000  0  7G 1G11G14G20G23G25G16
  21255432.2924   -5123125.07449  -3982242.61347                  21255431.1224
        50.2504         36.5004
  21686497.2654     578315.41449    447439.03947                  21686495.1754
        51.5004         38.7504
  24182046.4724    4294658.07849   3328723.01646                  24182044.9854
        39.5004         22.0004
  21433569.8504   -7801411.37149  -6060793.03947                  21433568.4224
        47.2504         31.5004
  22258015.7844   -7003505.53949  -5441488.61747                  22258011.4934
        47.5004         33.0004
  20877058.1084     332223.37949    256250.89848                  20877055.6794
        52.5004         42.5004
  23931610.7474   -3731603.24249  -2890554.44146                  23931611.2914
        38.2504         19.5004
 04  7 28 19 57 15.0000000  0  7G 1G11G14G20G23G25G16
  21249664.8094   -5153435.94549  -4005861.45747                  21249663.2874
        50.0004         36.2504
  21688721.5704     590005.05949    456547.84847                  21688719.5874
        51.0004         38.5004
  24187041.4474    4320903.48449   3349173.94946                  24187040.6644
        42.0004         25.5004
  21424389.0364   -7849658.69149  -6098388.33247                  21424387.0394
        47.2504         30.7504
  22249771.5334   -7046827.75049  -5475246.15247                  22249767.8924
        47.5004         33.5004
  20878911.3304     341962.94949    263840.17648                  20878908.8674
        52.5004         42.5004
  23920784.3994   -3788487.14549  -2934879.29346                  23920786.3524
        37.0004         15.5004
 04  7 28 19 57 30.0000000  0  7G 1G11G14G20G23G25G16
  21243905.5694   -5183700.73449  -4029444.39147                  21243904.1164
        50.2504         36.5004
  21690966.0004     601799.29349    465738.15247                  21690964.0454
        51.2504         38.5004
  24192033.5664    4347142.37549   3369619.78946                  24192032.7604
        38.0004         22.2504
  21415218.0954   -7897852.69549  -6135942.09847                  21415216.1484
        47.5004         31.5004
  22241534.7094   -7090112.54349  -5508974.53147                  22241531.1974
        48.0004         33.7504
  20880783.7314     351802.89149    271507.66448                  20880781.4154
        53.0004         42.2504
  23909961.8544   -3845365.28149  -2979199.79346                  23909961.7734
        39.2504         16.2504
 04  7 28 19 57 45.0000000  0  7G 1G11G14G20G23G25G16
  21238155.0284   -5213920.03149  -4052991.88747                  21238153.3864
        50.5004         37.0004
  21693230.3274     613697.28149    475009.30147                  21693228.2444
        50.5004         38.5004
  24197025.0044    4373374.20749   3390060.15646                  24197023.0594
        37.5004         18.2504
  21406056.9084   -7945993.73449  -6173454.57847                  21406054.5184
        48.7504         31.2504
  22233305.3174   -7133360.40249  -5542674.14547                  22233301.7744
        48.0004         34.2504
  20882674.9264     361742.48849    279252.79748                  20882672.9434
        51.5004         42.0004
  23899138.5164   -3902237.91449  -3023515.93746                  23899139.8604
        36.5004         17.7504
 04  7 28 19 58  0.0000000  0  7G 1G11G14G20G23G25G16
  21232413.2834   -5244092.12949  -4076502.60247                  21232411.7664
        50.5004         36.5004
  21695514.5684     625700.78149    484362.67247                  21695512.3644
        51.5004         38.5004
  24202016.6484    4399600.55549   3410496.26246                  24202013.6234
        40.2504         18.5004
  21396906.4364   -7994079.68449  -6210924.14547                  21396904.2124
        48.0004         32.2504
  22225082.9164   -7176569.58249  -5576343.61747                  22225079.3924
        47.7504         35.0004
  20884585.9704     371783.16449    287076.70348                  20884583.4104
        52.2504         42.5004
  23888318.0744   -3959102.83249  -3067825.98846                  23888319.4304
        40.5004         19.5004
 04  7 28 19 58 15.0000000  0  7G 1G11G14G20G23G25G16
  21226680.9544   -5274217.25849  -4099976.70347                  21226679.1404
        50.5004         37.0004
  21697818.8574     637809.30149    493797.86747                  21697816.7644
        51.2504         37.7504
  24207006.7714    4425821.15649   3430927.89146                  24207004.2424
        40.7504         22.7504
  21387766.2224   -8042110.55549  -6248350.78547                  21387764.1814
        47.7504         32.5004
  22216867.4474   -7219740.35249  -5609983.17247                  22216864.0104
        47.2504         33.7504
  20886515.5464     381924.41449    294978.97748                  20886513.4614
        52.5004         42.0004
  23877498.7504   -4015959.84449  -3112130.05146                  23877498.9384
        42.2504         22.2504
 04  7 28 19 58 30.0000000  0  7G 1G11G14G20G23G25G16
  21220957.0414   -5304297.14849  -4123415.56247                  21220955.0814
        50.5004         37.0004
  21700142.5684     650020.96149    503313.44947                  21700140.5644
        50.7504         38.0004
  24211994.5334    4452034.58249   3451353.88346                  24211994.4094
        38.0004         22.7504
  21378636.7734   -8090087.77749  -6285735.60947                  21378633.8884
        47.2504         32.2504
  22208659.4364   -7262874.26649  -5643593.98047                  22208655.8424
        47.2504         33.5004
  20888464.0704     392164.41049    302958.19548                  20888461.8874
        52.0004         42.0004
  23866679.6014   -4072810.34449  -3156428.98046                  23866680.1174
        40.2504         21.2504
 04  7 28 19 58 45.0000000  0  7G 1G11G14G20G23G25G16
  21215241.4244   -5334331.17249  -4146818.68447                  21215239.7744
        51.0004         36.5004
  21702485.7844     662336.12549    512909.66847                  21702483.6424
        50.5004         37.5004
  24216980.3724    4478241.40249   3471774.69946                  24216981.2134
        38.2504         21.2504
  21369517.4284   -8138010.37549  -6323077.88747                  21369514.3634
        47.5004         31.0004
  22200457.8594   -7305970.73049  -5677175.62547                  22200454.3884
        46.2504         32.7504
  20890431.3894     402503.66849    311014.75848                  20890429.6364
        51.2504         41.7504
  23855862.7974   -4129653.14549  -3200721.88346                  23855863.1754
        41.7504         21.5004
 04  7 28 19 59  0.0000000  0  7G 1G11G14G20G23G25G16
  21509328.0764   -5364316.10949  -4170183.55147                  21509326.0994
        50.5004         36.2504
  22004641.8164     674754.82449    522586.56647                  22004639.4144
        51.0004         37.5004
  24521760.3764    4504440.97749   3492189.99646                  24521758.6874
        41.0004         21.2504
  21660201.8054   -8185873.66049  -6360373.94547                  21660198.5854
        47.0004         31.2504
  22492057.5684   -7349025.60949  -5710724.85247                  22492053.8184
        46.2504         32.5004
  21192210.7324     412942.49649    319148.91048                  21192208.5784
        51.5004         42.0004
  24144841.4734   -4186482.93749  -3245004.66446                  24144841.5304
        42.5004         23.0004
 04  7 28 19 59 15.0000000  0  7G 1G11G14G20G23G25G16
  21503630.5524   -5394257.15649  -4193514.22347                  21503628.5114
        50.2504         36.7504
  22007024.7324     687277.35949    532344.37547                  22007022.8404
        49.5004         37.7504
  24526744.5774    4530635.73849   3512601.53146                  24526743.0134
        39.2504         23.0004
  21651103.8174   -8233684.80549  -6397629.36747                  21651100.9764
        46.0004         31.2504
  22483870.9854   -7392045.83249  -5744247.06247                  22483867.3674
        46.7504         33.0004
  21194216.2184     423480.90249    327360.67248                  21194213.7954
        50.5004         42.0004
  24134026.8734   -4243308.07849  -3289283.83646                  24134027.5254
        42.0004         22.5004
 04  7 28 19 59 30.0000000  0  7G 1G11G14G20G23G25G16
  21497941.9554   -5424150.02749  -4216807.34847                  21497939.8534
        51.0004         36.7504
  22009428.0774     699905.12149    542184.17647                  22009425.5094
        50.5004         37.7504
  24531727.0114    4556826.39849   3533009.75846                  24531727.5234
        36.0004         22.2504
  21642016.3304   -8281438.02749  -6434839.66447                  21642014.0424
        45.7504         31.2504
  22475692.1214   -7435026.09049  -5777738.16047                  22475687.7814
        47.5004         33.0004
  21196240.4294     434120.34049    335651.13348                  21196238.2724
        51.2504         41.7504
  24123215.4184   -4300121.89549  -3333554.19146                  24123215.9244
        41.5004         22.5004
 04  7 28 19 59 45.0000000  0  7G 1G11G14G20G23G25G16
  21492262.6344   -5453995.76249  -4240063.75047                  21492260.2624
        50.7504         37.0004
  22011850.3654     712636.66849    552104.85547                  22011848.3764
        50.2504         37.7504
  24536710.9524    4583011.82049   3553413.90246                  24536710.6814
        41.0004         22.2504
  21632940.3374   -8329134.07049  -6472005.40247                  21632937.9934
        47.0004         31.0004
  22467520.8164   -7477967.38749  -5811198.88347                  22467516.7734
        47.0004         33.2504
  21198284.0834     444859.42649    344019.25848                  21198281.6414
        51.7504         41.7504
  24112405.8974   -4356925.08649  -3377816.23846                  24112407.0394
        41.0004         22.7504
 04  7 28 20  0  0.0000000  0  7G 1G11G14G20G23G25G16
  21486591.8094   -5483792.94149  -4263282.31647                  21486590.2364
        50.2504         36.5004
  22014293.0204     725473.37149    562107.46547                  22014290.9384
        50.2504         37.2504
  24541694.2154    4609193.30949   3573815.05546                  24541692.4864
        40.5004         22.5004
  21623875.2884   -8376771.21949  -6509125.22747                  21623872.9964
        46.7504         31.5004
  22459357.0864   -7520868.27349  -5844628.11347                  22459352.8834
        47.5004         34.0004
  21200346.8164     455699.49249    352466.06348                  21200344.9444
        51.0004         42.0004
  24101598.7444   -4413715.69549  -3422068.50846                  24101600.3994
        40.2504         23.0004
 04  7 28 20  0 15.0000000  0  7G 1G11G14G20G23G25G16
  21480931.3454   -5513541.93749  -4286463.33647                  21480929.6894
        50.7504         37.0004
  22016755.7594     738414.62149    572191.54347                  22016753.6574
        50.0004         37.0004
  24546674.0054    4635370.58649   3594212.98846                  24546672.9524
        38.7504         20.5004
  21614821.2554   -8424349.47749  -6546199.18447                  21614819.0824
        46.2504         30.7504
  22451201.1004   -7563729.08649  -5878026.12547                  22451196.2534
        48.5004         33.5004
  21202428.8614     466639.87149    360991.02748                  21202426.6654
        51.0004         41.5004
  24090794.7974   -4470493.76249  -3466310.99246                  24090795.4714
        41.7504         22.5004
 04  7 28 20  0 30.0000000  0  7G 1G11G14G20G23G25G16
  21475279.1064   -5543244.00449  -4309607.78147                  21475277.4294
        50.5004         37.0004
  22019238.2714     751458.91449    582355.92247                  22019235.7124
        49.7504         37.0004
  24551654.0694    4661542.67648   3614606.80146                  24551653.4984
        35.5004         19.5004
  21605778.5134   -8471869.72749  -6583227.94547                  21605776.7404
        46.2504         31.0004
  22443051.8934   -7606550.96949  -5911393.79347                  22443047.5024
        48.0004         33.5004
  21204529.3914     477679.18849    369593.09448                  21204527.1984
        51.2504         41.2504
  24079992.0644   -4527260.03549  -3510544.34846                  24079993.3464
        41.2504         22.7504
 04  7 28 20  0 45.0000000  0  7G 1G11G14G20G23G25G16
  21469636.2634   -5572899.03949  -4332715.59047                  21469634.4044
        51.0004         37.0004
  22021739.9224     764606.01649    592600.40647                  22021737.4384
        50.0004         37.2504
  24556634.5404    4687709.34049   3634996.32446                  24556633.8844
        39.7504         22.0004
  21596746.3624   -8519331.60549  -6620211.19947                  21596744.4464
        46.0004         31.0004
  22434910.7714   -7649333.85549  -5944731.07447                  22434906.6734
        48.0004         33.7504
  21206649.3674     488817.28949    378272.13348                  21206646.8814
        52.0004         42.0004
  24069192.2404   -4584014.11349  -3554768.14846                  24069193.4174
        41.0004         23.0004
 04  7 28 20  1  0.0000000  0  7G 1G11G14G20G23G25G16
  21464001.2064   -5602508.85249  -4355788.15247                  21463999.7664
        50.5004         36.7504
  22024260.7354     777853.85549    602923.39147                  22024258.7644
        50.0004         37.0004
  24561613.1234    4713868.84049   3655380.35246                  24561612.1564
        40.5004         23.0004
  21587725.7524   -8566736.67649  -6657150.20347                  21587723.5874
        47.0004         30.2504
  22426776.6624   -7692079.56649  -5978039.39147                  22426772.7014
        48.2504         34.7504
  21208787.0954     500052.12949    387026.55148                  21208784.7524
        51.5004         41.5004
  24058394.4974   -4640757.41049  -3598983.53946                  24058395.5674
        41.0004         22.2504
 04  7 28 20  1 15.0000000  0  7G 1G11G14G20G23G25G16
  21458375.1904   -5632073.87949  -4378825.82447                  21458373.8424
        50.7504         36.5004
  22026800.7804     791201.89149    613324.44947                  22026798.2344
        49.0004         37.5004
  24566588.4974    4740020.86349   3675758.55146                  24566587.9564
        39.5004         21.7504
  21578715.6504   -8614085.02749  -6694045.01247                  21578713.8754
        44.2504         31.0004
  22418649.3214   -7734788.32449  -6011318.91447                  22418645.5564
        48.0004         34.0004
  21210943.3654     511383.20349    395855.95748                  21210941.2504
        51.7504         41.5004
  24047598.1954   -4697489.83249  -3643190.52346                  24047599.3134
        40.2504         22.2504
 04  7 28 20  1 30.0000000  0  7G 1G11G14G20G23G25G16
  21452757.8354   -5661594.06649  -4401828.54347                  21452755.9934
        51.7504         37.0004
  22029360.1164     804650.00049    623803.48847                  22029357.6054
        50.0004         37.7504
  24571563.2474    4766165.71948   3696131.12146                  24571562.6924
        35.2504         20.0004
  21569716.7474   -8661376.24649  -6730895.30147                  21569713.9414
        46.7504         30.0004
  22410529.2534   -7777460.10549  -6044569.62547                  22410525.9404
        48.5004         35.0004
  21213118.0304     522810.50849    404760.34448                  21213115.4274
        50.7504         41.5004
  24036804.4324   -4754210.91449  -3687388.60946                  24036805.3384
        40.5004         21.2504
 04  7 28 20  1 45.0000000  0  7G 1G11G14G20G23G25G16
  21447148.6374   -5691070.78149  -4424797.40247                  21447146.5044
        50.5004         37.0004
  22031937.9304     818196.65649    634359.32047                  22031935.8114
        49.7504         36.7504
  24576538.3264    4792301.80549   3716496.85946                  24576536.7604
        39.5004         21.7504
  21560728.4714   -8708611.32449  -6767701.84447                  21560725.4944
        46.5004         30.5004
  22402415.9514   -7820096.28549  -6077792.59447                  22402412.8514
        48.5004         34.7504
  21215310.5444     534332.28549    413738.35248                  21215308.2004
        51.7504         41.7504
  24026013.2974   -4810921.53949  -3731578.59046                  24026014.0404
        39.5004         22.2504
 04  7 28 20  2  0.0000000  0  7G 1G11G14G20G23G25G16
  21441547.8144   -5720503.51249  -4447731.97747                  21441545.8264
        51.0004         37.0004
  22034534.4454     831842.01249    644992.05147                  22034532.1604
        48.7504         37.0004
  24581509.5124    4818429.62949   3736856.24246                  24581508.5784
        39.7504         23.5004
  21551750.2234   -8755789.55949  -6804464.09447                  21551748.1304
        46.0004         30.0004
  22394309.3034   -7862696.16049  -6110987.26647                  22394305.8734
        48.5004         35.7504
  21217520.9844     545948.81349    422790.19548                  21217518.5914
        51.0004         42.0004
  24015223.5344   -4867620.74649  -3775759.66846                  24015224.5264
        41.0004         21.7504
 04  7 28 20  2 15.0000000  0  7G 1G11G14G20G23G25G16
  21435955.3334   -5749891.87149  -4470631.97747                  21435953.2334
        50.7504         36.5004
  22037149.9614     845586.27049    655701.86747                  22037147.4984
        49.7504         36.7504
  24586480.1464    4844549.78949   3757209.57846                  24586479.7454
        39.0004         23.0004
  21542783.8434   -8802910.23449  -6841181.47347                  21542781.6214
        46.5004         31.0004
  22386209.7054   -7905259.30149  -6144153.33247                  22386206.4844
        48.7504         35.5004
  21219749.8204     557660.33649    431916.05548                  21219747.3234
        51.7504         42.0004
  24004436.3264   -4924307.80149  -3819931.28146                  24004437.1034
        40.7504         20.5004
 04  7 28 20  2 30.0000000  0  7G 1G11G14G20G23G25G16
  21430370.8854   -5779239.42249  -4493500.18747                  21430368.8674
        51.2504         36.7504
  22039783.4484     859425.69949    666485.82447                  22039781.0174
        49.0004         37.0004
  24591448.1744    4870658.78549   3777554.21546                  24591448.1944
        38.2504         22.0004
  21533827.2044   -8849976.47749  -6877856.45747                  21533823.9454
        46.7504         30.2504
  22378116.5924   -7947789.35949  -6177293.60947                  22378112.9044
        48.5004         35.5004
  21221995.6034     569463.15649    441113.04748                  21221993.0854
        50.7504         41.5004
  23993649.9404   -4980985.70349  -3864095.75846                  23993651.6594
        39.7504         21.0004
 04  7 28 20  2 45.0000000  0  7G 1G11G14G20G23G25G16
  21424794.1954   -5808543.83249  -4516334.78147                  21424792.1724
        50.5004         37.0004
  22042435.7754     873362.27349    677345.48847                  22042432.9074
        49.5004         36.7504
  24596415.7074    4896758.84449   3797891.87546                  24596413.7894
        41.0004         20.0004
  21524881.2924   -8896985.69149  -6914487.00847                  21524878.2494
        46.7504         30.0004
  22370030.1744   -7990283.91049  -6210406.22747                  22370026.1034
        49.0004         35.5004
  21224259.3834     581359.20349    450382.68848                  21224256.8444
        51.5004         41.2504
  23982867.1384   -5037651.84849  -3908251.09446                  23982867.8914
        41.0004         21.0004
 04  7 28 20  3  0.0000000  0  7G 1G11G14G20G23G25G16
  21419225.9054   -5837805.35249  -4539135.94547                  21419224.1504
        50.5004         36.7504
  22045105.8914     887395.48449    688280.44547                  22045103.5554
        50.2504         36.2504
  24601380.9664    4922849.64149   3818222.39846                  24601378.9604
        42.0004         23.0004
  21515946.4524   -8943937.90249  -6951073.12947                  21515944.2834
        47.0004         28.0004
  22361949.9564   -8032743.20749  -6243491.37147                  22361945.8294
        48.5004         35.2504
  21226540.8224     593348.23449    459724.78948                  21226538.0184
        51.5004         41.2504
  23972085.3664   -5094306.10249  -3952397.13746                  23972087.2544
        40.0004         20.5004
 04  7 28 20  3 15.0000000  0  7G 1G11G14G20G23G25G16
  21413665.2594   -5867026.58249  -4561905.72347                  21413663.7534
        49.5004         37.0004
  22047794.1844     901522.62549    699288.60547                  22047792.0954
        50.2504         36.2504
  24606343.2004    4948928.81649   3838543.80946                  24606341.9964
        42.0004         23.7504
  21507022.4864   -8990835.26249  -6987616.51647                  21507019.3044
        47.7504         29.5004
  22353876.8904   -8075169.68749  -6276550.93447                  22353871.9114
        48.0004         35.0004
  21228839.6374     605427.41449    469137.12948                  21228836.5104
        51.0004         41.2504
  23961306.6164   -5150950.41849  -3996535.44546                  23961307.2634
        41.2504         21.0004
 04  7 28 20  3 30.0000000  0  7G 1G11G14G20G23G25G16
  21408112.9514   -5896202.59449  -4584640.25847                  21408112.0414
        50.2504         37.0004
  22050501.0824     915748.36349    710373.58647                  22050498.5934
        50.2504         36.5004
  24611303.7744    4975001.29349   3858859.99646                  24611303.7814
        38.7504         22.5004
  21498109.4384   -9037672.57049  -7024113.09447                  21498106.4144
        47.5004         28.2504
  22345810.3044   -8117558.50849  -6309581.16047                  22345805.5744
        49.5004         35.0004
  21231155.9004     617601.50049    478623.42648                  21231153.1614
        51.5004         41.2504
  23950530.4644   -5207579.55149  -4040661.92246                  23950530.7124
        39.7504         22.0004
 04  7 28 20  3 45.0000000  0  7G 1G11G14G20G23G25G16
  21402569.5754   -5925335.67649  -4607341.35547                  21402568.4284
        50.5004         37.0004
  22053227.1144     930070.14849    721533.40647                  22053224.1934
        49.7504         36.0004
  24616264.0324    5001064.85249   3879169.18446                  24616262.9844
        41.2504         21.7504
  21489207.2994   -9084451.80149  -7060564.42647                  21489204.5784
        46.7504         28.0004
  22337750.8654   -8159911.78549  -6342583.69947                  22337746.3004
        48.7504         35.5004
  21233490.4734     629867.89549    488181.64548                  21233487.1764
        51.7504         40.7504
  23939757.1324   -5264195.34049  -4084777.98846                  23939755.7674
        40.5004         20.0004
 04  7 28 20  4  0.0000000  0  7G 1G11G14G20G23G25G16
  21397033.9504   -5954425.98449  -4630009.11347                  21397032.6504
        50.0004         37.0004
  22055970.4474     944487.75449    732767.89847                  22055967.6114
        50.0004         36.0004
  24621222.5094    5027119.33649   3899471.35546                  24621221.1404
        42.2504         21.7504
  21480316.7264   -9131172.67649  -7096970.29747                  21480314.7944
        47.0004         27.2504
  22329698.3644   -8202229.71949  -6375558.69547                  22329693.7224
        49.2504         35.5004
  21235842.1534     642226.17249    497811.46148                  21235839.4244
        50.7504         40.7504
  23928985.4194   -5320797.43749  -4128883.42646                  23928984.6804
        40.5004         21.2504
 04  7 28 20  4 15.0000000  0  7G 1G11G14G20G23G25G16
  21391506.5134   -5983471.77749  -4652642.18747                  21391505.1424
        50.0004         37.5004
  22058732.1674     959002.47349    744078.06647                  22058729.5854
        49.5004         36.0004
  24626179.6744    5053166.44949   3919767.83646                  24626177.9664
        41.7504         21.0004
  21471437.5074   -9177833.23449  -7133329.14547                  21471435.4684
        47.2504         27.5004
  22321652.6844   -8244510.46549  -6408504.70347                  22321648.0974
        48.5004         35.5004
  21238211.8084     654678.00849    507514.18048                  21238208.7564
        51.2504         41.2504
  23918217.6054   -5377383.84449  -4172976.60546                  23918216.8114
        39.5004         21.5004
 04  7 28 20  4 30.0000000  0  7G 1G11G14G20G23G25G16
  21385987.6714   -6012471.41449  -4675239.29747                  21385986.5054
        49.5004         36.7504
  22061513.0214     973615.80549    755465.05947                  22061510.1264
        50.0004         36.2504
  24631134.4444    5079207.96549   3940059.88346                  24631134.0754
        40.7504         21.0004
  21462570.6354   -9224431.51249  -7169639.46147                  21462567.7984
        47.2504         26.7504
  22313613.9394   -8286752.35249  -6441420.44547                  22313609.9944
        49.0004         35.0004
  21240599.1234     667224.85549    517290.94948                  21240596.5414
        50.7504         40.7504
  23907452.3284   -5433952.25049  -4217055.77046                  23907451.7884
        40.0004         21.0004
 04  7 28 20  4 45.0000000  0  7G 1G11G14G20G23G25G16
  21380478.4234   -6041424.66049  -4697800.25047                  21380476.5354
        49.5004         37.0004
  22064312.7914     988327.73849    766928.89847                  22064310.4634
        50.2504         36.2504
  24636088.6444    5105244.11349   3960347.74646                  24636087.4664
        39.7504         20.5004
  21453715.0754   -9270966.93749  -7205900.81247                  21453712.1264
        47.0004         27.2504
  22305582.9884   -8328955.17649  -6474305.73847                  22305578.6304
        48.2504         34.5004
  21243004.6644     679866.74649    527141.76648                  21243002.4454
        50.2504         41.0004
  23896691.1734   -5490502.16049  -4261120.50846                  23896690.7804
        40.0004         21.2504
 04  7 28 20  5  0.0000000  0  7G 1G11G14G20G23G25G16
  21374977.2014   -6070333.07049  -4720326.27047                  21374975.4744
        49.0004         36.5004
  22067130.6204    1003136.62949    778468.27347                  22067128.6384
        49.5004         36.7504
  24641041.6764    5131273.27349   3980630.19146                  24641041.3664
        39.7504         20.5004
  21444871.2644   -9317440.71149  -7242114.12147                  21444868.0584
        46.0004         26.2504
  22297559.2094   -8371120.42249  -6507161.75047                  22297554.7754
        48.5004         35.0004
  21245428.0994     692601.81649    537065.19548                  21245425.9534
        49.2504         40.7504
  23885933.8454   -5547034.65649  -4305171.72746                  23885932.4484
        40.5004         21.5004
 04  7 28 20  5 15.0000000  0  7G 1G11G14G20G23G25G16
  21369485.5904   -6099192.87949  -4742814.42647                  21369483.7744
        49.0004         36.2504
  22069968.2214    1018045.77049    790085.77347                  22069965.8934
        50.2504         36.7504
  24645994.5794    5157299.25449   4000910.15646                  24645993.2344
        39.2504         20.0004
  21436040.3654   -9363848.78949  -7278276.27046                  21436036.7644
        47.0004         24.7504
  22289543.1884   -8413244.21149  -6539985.46547                  22289539.0724
        49.2504         35.0004
  21247869.9414     705433.63749    547064.00848                  21247867.4004
        51.0004         40.2504
  23875179.4314   -5603545.56249  -4349206.08646                  23875178.8754
        40.7504         20.5004
 04  7 28 20  5 30.0000000  0  7G 1G11G14G20G23G25G16
  21364003.1244   -6128003.07049  -4765263.91847                  21364001.4944
        48.7504         36.0004
  22072824.4344    1033056.10549    801782.13347                  22072821.7684
        50.2504         37.0004
  24650946.6984    5183323.31649   4021188.68046                  24650944.6694
        38.5004         17.7504
  21427221.8084   -9410189.77049  -7314386.09046                  21427219.1144
        45.0004         25.2504
  22281535.6964   -8455325.32849  -6572775.91447                  22281531.1074
        49.0004         35.2504
  21250330.3874     718363.08649    557138.91048                  21250327.8874
        49.7504         40.5004
  23864430.4634   -5660033.29349  -4393222.42246                  23864429.9414
        40.2504         22.5004
 04  7 28 20  5 45.0000000  0  7G 1G11G14G20G23G25G16
  21358529.8274   -6156765.35549  -4787676.07447                  21358528.1604
        48.0004         36.5004
  22075699.4074    1048165.59849    813555.76247                  22075696.9884
        50.0004         37.0004
  24655898.3714    5209343.66449   4041464.23846                  24655895.6034
        38.5004         17.7504
  21418415.9534   -9456465.12549  -7350444.78547                  21418412.9994
        45.5004         26.7504
  22273535.5004   -8497365.57449  -6605534.52047                  22273530.9204
        49.2504         34.5004
  21252809.0044     731388.37949    567288.48448                  21252806.7644
        49.2504         40.5004
  23853684.9504   -5716499.21149  -4437221.73846                  23853685.2484
        40.7504         22.5004
 04  7 28 20  6  0.0000000  0  7G 1G11G14G20G23G25G16
  21353065.2904   -6185480.37549  -4810051.40247                  21353063.8184
        46.7504         36.2504
  22078593.6374    1063373.43849    825406.02347                  22078591.4324
        49.5004         37.0004
  24660848.7964    5235359.75449   4061736.50846                  24660847.1414
        38.0004         17.5004
  21409622.1284   -9502675.05949  -7386452.50447                  21409620.0604
        45.5004         26.2504
  22265543.1594   -8539365.53949  -6638261.75047                  22265538.2614
        48.7504         34.5004
  21255305.4924     744508.62549    577512.05948                  21255303.3274
        49.5004         40.2504
  23842943.5454   -5772943.34449  -4481204.07446                  23842943.9464
        40.0004         22.5004
 04  7 28 20  6 15.0000000  0  7G 1G11G14G20G23G25G16
  21347610.0664   -6214147.76249  -4832389.62547                  21347608.3594
        47.0004         36.0004
  22081506.0764    1078679.73049    837332.98847                  22081504.1994
        49.2504         37.2504
  24665798.9624    5261371.81349   4082005.62146                  24665797.0124
        39.2504         17.7504
  21400841.2514   -9548819.05149  -7422408.84047                  21400838.4334
        45.2504         27.0004
  22257558.5804   -8581324.83249  -6670957.29347                  22257554.0484
        49.5004         35.2504
  21257820.5904     757723.89849    587809.67648                  21257818.0874
        49.2504         40.0004
  23832206.6504   -5829365.09049  -4525168.98846                  23832207.4134
        39.0004         21.7504
 04  7 28 20  6 30.0000000  0  7G 1G11G14G20G23G25G16
  21342164.0554   -6242766.49649  -4854689.92647                  21342162.5044
        47.5004         36.2504
  22084437.5744    1094085.27049    849337.29347                  22084436.2344
        49.0004         37.0004
  24670748.2804    5287380.92649   4102272.43046                  24670747.0704
        40.0004         19.0004
  21392073.4534   -9594895.66449  -7458312.66447                  21392070.2964
        43.5004         27.0004
  22249581.7584   -8623242.32449  -6703620.25447                  22249577.3994
        49.2504         34.0004
  21260353.2124     771034.93049    598181.90248                  21260351.1124
        48.7504         40.7504
  23821474.7374   -5885762.92649  -4569115.24246                  23821474.9844
        37.7504         21.7504
 04  7 28 20  6 45.0000000  0  7G 1G11G14G20G23G25G16
  21336726.8064   -6271337.84449  -4876953.30147                  21336725.8224
        46.5004         36.0004
  22087388.0124    1109588.52049    861417.74247                  22087386.1164
        49.2504         36.7504
  24675696.7544    5313385.94149   4122536.05546                  24675694.5964
        38.0004         17.7504
  21383317.7774   -9640905.80949  -7494164.69947                  21383314.7344
        45.5004         27.0004
  22241612.7424   -8665119.36749  -6736251.69547                  22241608.0754
        49.0004         34.0004
  21262904.0674     784440.22349    608627.59048                  21262902.0034
        49.7504         40.5004
  23810746.9174   -5942137.82449  -4613043.65246                  23810747.6004
        38.0004         21.2504
 04  7 28 20  7  0.0000000  0  7G 1G11G14G20G23G25G16
  21331299.6854   -6299860.62949  -4899178.83647                  21331297.6594
        47.2504         36.5004
  22090356.8264    1125190.41049    873575.04747                  22090354.9974
        49.0004         37.5004
  24680644.5024    5339388.09449   4142797.43046                  24680643.7324
        37.2504         15.5004
  21374575.7574   -9686848.01649  -7529963.80147                  21374572.4434
        45.0004         27.2504
  22233652.0054   -8706954.65649  -6768850.60247                  22233646.5304
        48.7504         33.5004
  21265473.2984     797940.82049    619147.53948                  21265471.0334
        49.0004         40.7504
  23800023.9954   -5998488.06249  -4656952.79746                  23800024.4114
        37.2504         19.2504
 04  7 28 20  7 15.0000000  0  7G 1G11G14G20G23G25G16
  21325880.5744   -6328336.94949  -4921368.16847                  21325879.1074
        46.0004         36.7504
  22093344.0424    1140888.59849    885807.40247                  22093342.1144
        48.5004         36.5004
  24685591.9964    5365385.38749   4163055.00446                  24685591.1314
        39.2504         16.2504
  21365845.7014   -9732724.07049  -7565711.35947                  21365841.6734
        45.7504         27.0004
  22225698.2424   -8748750.22749  -6801418.55947                  22225693.5414
        49.2504         35.0004
  21268060.4434     811534.48049    629740.00048                  21268057.9894
        50.0004         41.0004
  23789305.2574   -6054815.30149  -4700844.07846                  23789305.7604
        39.5004         21.0004
 04  7 28 20  7 30.0000000  0  7G 1G11G14G20G23G25G16
  21320470.3264   -6356767.64849  -4943521.96947                  21320468.9524
        45.7504         37.0004
  22096349.6024    1156682.12549    898114.03947                  22096347.8324
        48.2504         36.7504
  24690537.9044    5391376.93449   4183308.14146                  24690536.5534
        39.5004         17.7504
  21357128.1774   -9778534.50849  -7601407.79347                  21357124.8334
        44.5004         27.0004
  22217752.5334   -8790506.84449  -6833956.16447                  22217747.6774
        49.2504         34.2504
  21270664.6474     825220.07849    640404.10248                  21270662.7314
        49.0004         41.2504
  23778590.9814   -6111120.04749  -4744717.84446                  23778591.4854
        38.5004         21.7504
 04  7 28 20  7 45.0000000  0  7G 1G11G14G20G23G25G16
  21315069.0624   -6385152.40649  -4965639.94547                  21315067.3024
        44.2504         37.0004
  22099372.9474    1172570.97349    910494.95347                  22099370.9174
        48.2504         37.2504
  24695482.7054    5417362.96949   4203557.00446                  24695481.4484
        39.5004         19.2504
  21348423.5134   -9824278.64549  -7637052.56246                  21348419.7794
        45.2504         25.5004
  22209814.2584   -8832224.19149  -6866463.15647                  22209809.0654
        49.7504         34.0004
  21273286.5474     838997.73449    651139.94148                  21273284.3214
        50.2504         41.0004
  23767881.8834   -6167401.32049  -4788573.29346                  23767881.2994
        40.5004         22.0004
 04  7 28 20  8  0.0000000  0  7G 1G11G14G20G23G25G16
  21309675.8464   -6413491.74249  -4987722.54747                  21309674.3694
        45.5004         37.5004
  22102414.9064    1188554.34849    922949.52747                  22102412.7574
        48.7504         37.0004
  24700427.1684    5443343.14149   4223801.28546                  24700425.5424
        39.5004         21.0004
  21339730.9714   -9869956.63349  -7672645.77347                  21339727.8524
        44.0004         26.5004
  22201882.7444   -8873902.75049  -6898939.93447                  22201877.7364
        49.0004         34.0004
  21275925.6414     852866.71949    661946.93848                  21275923.4094
        50.5004         41.7504
  23757176.4544   -6223659.27749  -4832410.58646                  23757175.4284
        42.0004         22.5004
 04  7 28 20  8 15.0000000  0  7G 1G11G14G20G23G25G16
  21304291.7484   -6441786.37149  -5009770.30547                  21304290.2914
        46.0004         38.0004
  22105474.0444    1204631.40649    935477.09847                  22105472.2584
        49.0004         37.0004
  24705369.9234    5469316.77349   4244040.41446                  24705368.6714
        39.5004         20.0004
  21331051.2274   -9915568.92649  -7708187.80947                  21331048.3274
        44.5004         27.0004
  22193958.7564   -8915543.23449  -6931387.04347                  22193953.5694
        49.2504         33.7504
  21278582.2604     866826.13349    672824.40648                  21278579.8104
        51.2504         41.7504
  23746474.8224   -6279894.23049  -4876229.94146                  23746474.0074
        42.5004         24.0004
 04  7 28 20  8 30.0000000  0  7G 1G11G14G20G23G25G16
  21298915.7454   -6470036.73849  -5031783.57847                  21298914.0554
        45.7504         37.5004
  22108550.8964    1220801.36349    948077.05147                  22108548.8034
        48.7504         37.0004
  24710311.0304    5495283.47349   4264274.12946                  24710309.1024
        41.0004         18.5004
  21322383.8354   -9961115.60249  -7743678.69947                  21322381.3864
        44.7504         28.0004
  22186041.8174   -8957145.93049  -6963804.70747                  22186037.3414
        49.0004         33.2504
  21281255.4104     880875.32049    683771.82448                  21281253.0024
        50.5004         41.5004
  23735778.7474   -6336106.19549  -4920031.39846                  23735777.5224
        42.5004         24.2504
 04  7 28 20  8 45.0000000  0  7G 1G11G14G20G23G25G16
  21293548.0434   -6498244.87149  -5053763.93447                  21293546.5344
        45.7504         37.5004
  22111645.5884    1237061.89149    960747.59047                  22111642.9404
        50.2504         36.5004
  24715251.3064    5521241.23449   4284500.93446                  24715248.0344
        41.7504         18.2504
  21313729.0474  -10006598.41449  -7779119.82847                  21313726.1844
        43.7504         28.5004
  22178131.9664   -8998712.82449  -6996194.48447                  22178126.6754
        49.7504         33.5004
  21283945.8934     895012.18449    694787.57448                  21283943.2604
        50.5004         41.2504
  23725085.4284   -6392296.66449  -4963816.09846                  23725085.3654
        42.5004         24.5004
 04  7 28 20  9  0.0000000  0  7G 1G11G14G20G23G25G16
  21288188.6824   -6526408.72349  -5075709.78147                  21288187.1794
        46.0004         38.0004
  22114756.9764    1253414.87149    973490.16047                  22114754.8614
        49.5004         36.5004
  24720188.4944    5547192.11749   4304722.44546                  24720186.4494
        39.7504         18.2504
  21305086.6884  -10052014.89849  -7814509.28147                  21305083.9084
        43.7504         27.5004
  22170229.3864   -9040241.77349  -7028554.68747                  22170224.3244
        48.5004         33.5004
  21286652.8584     909238.48449    705873.00048                  21286650.3654
        51.0004         41.2504
  23714397.0884   -6448463.25049  -5007582.16846                  23714396.7914
        42.7504         25.2504
 04  7 28 20  9 15.0000000  0  7G 1G11G14G20G23G25G16
  21282837.4544   -6554528.35949  -5097621.18447                  21282836.4904
        45.5004         37.5004
  22117886.9424    1269859.89849    986304.46147                  22117884.6284
        48.5004         37.0004
  24725125.0534    5573136.14849   4324938.57446                  24725123.8654
        37.7504         17.7504
  21296456.8274  -10097364.86749  -7849846.91047                  21296453.5494
        43.5004         27.5004
  22162333.5514   -9081732.92649  -7060885.44147                  22162329.1764
        49.0004         33.2504
  21289376.9004     923553.77749    717027.77048                  21289374.3414
        49.7504         41.2504
  23703712.9414   -6504605.52349  -5051329.30546                  23703712.7444
        41.5004         24.0004
 04  7 28 20  9 30.0000000  0  7G 1G11G14G20G23G25G16
  21277494.9104   -6582605.68049  -5119499.60947                  21277493.4544
        45.5004         38.5004
  22121033.4744    1286394.64149    999188.66447                  22121030.9344
        49.5004         36.7504
  24730060.7184    5599071.50049   4345147.92246                  24730059.4244
        37.5004         19.0004
  21287838.9714  -10142649.93449  -7885133.95347                  21287836.3424
        44.2504         27.0004
  22154445.1114   -9123188.13749  -7093188.18747                  22154440.3344
        48.2504         32.7504
  21292117.5384     937956.10949    728250.36748                  21292115.1164
        51.2504         40.7504
  23693034.1834   -6560724.89149  -5095058.60546                  23693033.1524
        42.0004         24.2504
 04  7 28 20  9 45.0000000  0  7G 1G11G14G20G23G25G16
  21272159.8394   -6610641.52349  -5141345.71547                  21272158.3384
        47.0004         38.5004
  22124196.4764    1303018.49249   1012142.30547                  22124194.3694
        49.7504         36.5004
  24734994.7874    5624997.25449   4365349.75446                  24734994.4534
        38.0004         20.5004
  21279234.0654  -10187870.59049  -7920370.82047                  21279230.5534
        44.2504         27.2504
  22146562.6864   -9164608.13749  -7125463.49647                  22146558.4234
        47.2504         31.7504
  21294874.6864     952444.32449    739539.88348                  21294872.1574
        51.0004         40.7504
  23682359.1664   -6616821.93749  -5138770.49246                  23682358.0544
        41.7504         24.0004
 04  7 28 20 10  0.0000000  0  7G 1G11G14G20G23G25G16
  21266833.1044   -6638633.02349  -5163157.26247                  21266831.5714
        46.7504         38.5004
  22127377.7254    1319733.89549   1025167.28947                  22127375.4524
        50.7504         36.2504
  24739925.9954    5650916.31649   4385546.44546                  24739926.4254
        39.0004         19.2504
  21270641.3344  -10233023.57849  -7955554.95747                  21270638.1464
        44.0004         26.0004
  22138688.2484   -9205990.07449  -7157709.13747                  22138683.2974
        49.0004         31.7504
  21297648.3044     967021.06349    750898.37948                  21297645.6844
        51.5004         40.7504
  23671688.8924   -6672893.28549  -5182462.36746                  23671688.0014
        41.5004         22.5004
 04  7 28 20 10 15.0000000  0  7G 1G11G14G20G23G25G16
  21261515.1194   -6666579.55949  -5184933.78947                  21261514.1584
        46.7504         38.7504
  22130575.8634    1336541.01249   1038263.72747                  22130573.8684
        49.2504         35.5004
  24744858.1204    5676829.35949   4405738.40646                  24744856.5064
        41.2504         18.2504
  21262062.0444  -10278108.05549  -7990685.70747                  21262059.2434
        43.7504         27.7504
  22130820.8184   -9247333.25449  -7189924.58247                  22130816.2144
        49.0004         31.7504
  21300439.2374     981686.85249    762326.26248                  21300437.1754
        51.5004         41.0004
  23661024.7964   -6728937.94549  -5226133.46546                  23661022.8024
        42.5004         23.7504
 04  7 28 20 10 30.0000000  0  7G 1G11G14G20G23G25G16
  21256205.2834   -6694481.91849  -5206675.87547                  21256204.2814
        47.5004         38.7504
  22133791.2364    1353438.98849   1051430.95747                  22133789.3304
        50.7504         36.2504
  24749788.1124    5702735.82049   4425925.27746                  24749786.1874
        41.0004         17.7504
  21253496.2774  -10323124.41449  -8025763.36747                  21253492.5154
        43.7504         26.7504
  22122960.8674   -9288638.41449  -7222110.39847                  22122955.5844
        49.0004         31.5004
  21303246.6224     996440.76649    773822.82048                  21303244.1754
        52.0004         41.0004
  23650363.7404   -6784956.15249  -5269783.94546                  23650362.5744
        43.0004         24.2504
 04  7 28 20 10 45.0000000  0  7G 1G11G14G20G23G25G16
  21250903.4544   -6722342.50849  -5228385.41847                  21250902.5134
        47.0004         39.0004
  22137023.3414    1370425.17649   1064666.93847                  22137021.7444
        49.7504         35.5004
  24754716.8254    5728633.13749   4446104.98446                  24754714.5804
        41.5004         20.5004
  21244941.9954  -10368074.78149  -8060789.62147                  21244938.5644
        43.7504         26.2504
  22115107.6144   -9329907.89549  -7254268.41847                  22115102.5754
        48.5004         31.7504
  21306070.6674    1011279.94149    785385.81348                  21306068.0564
        51.2504         40.0004
  23639708.7944   -6840949.88349  -5313415.34446                  23639707.4544
        41.5004         22.5004
 04  7 28 20 11  0.0000000  0  7G 1G11G14G20G23G25G16
  21245609.8984   -6750161.65249  -5250062.67247                  21245608.9014
        48.0004         39.2504
  22140272.8864    1387498.99649   1077971.20347                  22140270.4714
        50.5004         36.5004
  24759642.5014    5754521.17649   4466277.42246                  24759640.6614
        40.7504         20.5004
  21236400.9674  -10412959.02049  -8095764.35947                  21236397.5224
        43.5004         26.7504
  22107260.8824   -9371141.89849  -7286398.78947                  22107256.4634
        49.0004         31.0004
  21308910.5104    1026204.05949    797014.98448                  21308907.9704
        51.0004         40.0004
  23629058.7424   -6896918.96949  -5357027.54746                  23629057.3514
        41.7504         22.5004
 04  7 28 20 11 15.0000000  0  7G 1G11G14G20G23G25G16
  21240323.6564   -6777940.03549  -5271708.16048                  21240322.6574
        47.5004         39.5004
  22143538.0814    1404659.48049   1091342.98847                  22143536.0604
        50.2504         35.5004
  24764566.5794    5780399.08649   4486441.98046                  24764565.0784
        41.0004         21.0004
  21227872.2304  -10457777.72349  -8130688.00847                  21227868.6654
        44.0004         26.5004
  22099421.0394   -9412341.14149  -7318502.07447                  22099416.9534
        48.5004         31.7504
  21311766.0454    1041212.16449    808709.60948                  21311763.9654
        51.5004         39.7504
  23618411.6814   -6952863.76249  -5400620.82446                  23618411.4804
        41.7504         22.5004
 04  7 28 20 11 30.0000000  0  7G 1G11G14G20G23G25G16
  21235045.6144   -6805678.24249  -5293322.34448                  21235044.5484
        48.2504         40.0004
  22146819.7874    1421905.71549   1104781.60247                  22146818.1784
        50.0004         36.0004
  24769488.8454    5806266.45749   4506598.36346                  24769487.8614
        40.5004         20.5004
  21219355.9124  -10502531.02349  -8165560.71547                  21219352.4794
        43.5004         28.0004
  22091587.4284   -9453506.18749  -7350578.71147                  22091583.0124
        49.0004         31.7504
  21314638.3794    1056303.48449    820469.08248                  21314636.2514
        51.7504         39.7504
  23607769.8464   -7008784.39849  -5444195.25446                  23607770.6574
        41.2504         22.7504
 04  7 28 20 11 45.0000000  0  6G 1G11G20G23G25G16
  21229775.3294   -6833374.73449  -5314904.02748                  21229774.0114
        48.5004         40.2504
  22150118.6364    1439238.96949   1118288.01647                  22150116.4394
        50.2504         35.5004
  21210852.2774  -10547217.00049  -8200380.94547                  21210849.8614
        43.5004         27.5004
  22083760.6214   -9494635.36349  -7382627.40647                  22083756.6444
        49.2504         32.0004
  21317525.9824    1071479.21549    832294.31348                  21317523.6404
        50.2504         39.7504
  23597133.3294   -7064678.91049  -5487749.33246                  23597133.5924
        41.5004         22.7504
 04  7 28 20 12  0.0000000  0  6G 1G11G20G23G25G16
  21224512.1364   -6861030.42249  -5336453.90248                  21224510.8374
        48.0004         40.2504
  22153433.2824    1456658.22749   1131861.46147                  22153431.2294
        50.0004         35.5004
  21202361.4374  -10591836.31249  -8235149.23447                  21202359.1604
        44.2504         28.0004
  22075940.7154   -9535729.65649  -7414648.90647                  22075936.2514
        49.0004         31.5004
  21320429.9324    1086738.20349    844184.43048                  21320427.5814
        51.0004         40.0004
  23586501.8484   -7120547.70749  -5531283.37546                  23586502.2424
        40.0004         22.0004
 04  7 28 20 12 15.0000000  0  6G 1G11G20G23G25G16
  21219256.8724   -6888647.23849  -5357973.48448                  21219255.4594
        48.7504         40.2504
  22156763.9304    1474161.29749   1145500.20347                  22156762.0404
        50.2504         35.7504
  21193883.5274  -10636390.47749  -8269866.76247                  21193880.9854
        44.5004         27.5004
  22068127.1654   -9576790.89849  -7446644.64847                  22068121.6564
        48.5004         30.5004
  21323348.8474    1102078.42649    856137.85248                  21323346.5504
        51.0004         39.7504
  23575875.2164   -7176392.25849  -5574798.51246                  23575874.7324
        40.0004         20.5004
 04  7 28 20 12 30.0000000  0  6G 1G11G20G23G25G16
  21214009.6514   -6916220.52749  -5379459.16048                  21214008.1394
        48.2504         40.5004
  22160111.5864    1491752.44149   1159207.57847                  22160109.3824
        50.0004         36.2504
  21185417.9894  -10680874.60549  -8304529.72347                  21185416.0224
        43.7504         28.5004
  22060320.5204   -9617814.43449  -7478611.02047                  22060314.5424
        48.2504         31.0004
  21326284.2374    1117504.29349    868158.00448                  21326281.7544
        50.7504         39.7504
  23565253.1564   -7232207.46549  -5618290.79746                  23565253.0904
        42.0004         21.7504
 04  7 28 20 12 45.0000000  0  6G 1G11G20G23G25G16
  21208771.1374   -6943749.49249  -5400910.28948                  21208770.0864
        48.7504         40.7504
  22163476.0664    1509432.14149   1172983.95747                  22163473.4594
        49.5004         36.5004
  21176966.8764  -10725287.62149  -8339137.25047                  21176964.5284
        43.2504         28.7504
  22052521.1834   -9658799.37949  -7510547.31647                  22052515.5964
        49.0004         30.2504
  21329236.0424    1133016.33249    880245.31648                  21329233.6904
        51.0004         39.5004
  23554638.3904   -7287992.26249  -5661759.41046                  23554637.2504
        41.0004         21.5004
 04  7 28 20 13  0.0000000  0  6G 1G11G20G23G25G16
  21203541.0474   -6971235.52049  -5422327.96948                  21203539.4664
        48.2504         41.0004
  22166856.7904    1527198.87149   1186828.15647                  22166854.7794
        49.5004         35.7504
  21168528.7104  -10769630.47349  -8373690.10947                  21168526.0894
        44.5004         28.0004
  22044729.4664   -9699747.07849  -7542454.60247                  22044723.5874
        48.2504         30.2504
  21332203.9544    1148612.89849    892398.48848                  21332201.6204
        51.2504         40.0004
  23544028.1424   -7343747.49249  -5705204.94146                  23544026.9274
        41.5004         21.7504
 04  7 28 20 13 15.0000000  0  6G 1G11G20G23G25G16
  21198318.8524   -6998676.88349  -5443710.84448                  21198317.8454
        49.5004         41.5004
  22170254.7184    1545054.08249   1200741.29747                  22170252.4014
        49.5004         36.0004
  21160103.8904  -10813901.20349  -8408186.77747                  21160101.2174
        43.7504         27.2504
  22036944.8274   -9740655.79349  -7574331.50847                  22036939.4024
        49.0004         30.0004
  21335188.2324    1164295.48849    904618.68848                  21335186.2724
        50.7504         40.5004
  23533424.6184   -7399470.98849  -5748625.75846                  23533423.5154
        42.2504         22.2504
 04  7 28 20 13 30.0000000  0  6G 1G11G20G23G25G16
  21193105.5224   -7026074.89149  -5465059.93448                  21193103.7364
        49.0004         41.7504
  22173668.9004    1562996.43449   1214722.33247                  22173666.4784
        50.2504         34.7504
  21151693.5674  -10858100.75449  -8442628.00047                  21151690.0744
        43.5004         26.5004
  22029167.2994   -9781526.58249  -7606178.85947                  22029161.8944
        48.5004         30.7504
  21338188.6514    1180062.76649    916904.87548                  21338186.4934
        51.7504         40.5004
  23522827.1674   -7455163.57849  -5792022.51246                  23522824.7654
        42.5004         22.5004
 04  7 28 20 13 45.0000000  0  6G 1G11G20G23G25G16
  21187900.1354   -7053429.37949  -5486375.10948                  21187898.4294
        48.2504         42.0004
  22177099.8354    1581025.56649   1228770.99247                  22177096.7224
        48.5004         34.5004
  21143295.3144  -10902228.62949  -8477013.34847                  21143292.2704
        44.5004         27.2504
  22021397.3744   -9822359.47749  -7637996.68047                  22021392.3634
        48.5004         31.5004
  21341205.3144    1195914.67649    929257.01648                  21341202.8864
        51.7504         40.7504
  23512235.3754   -7510824.71949  -5835394.76646                  23512232.7244
        43.5004         22.5004
 04  7 28 20 14  0.0000000  0  6G 1G11G20G23G25G16
  21182702.8894   -7080738.87149  -5507655.22348                  21182701.7524
        49.0004         42.5004
  22180547.0874    1599142.53149   1242888.09047                  22180544.4034
        49.0004         35.2504
  21134913.0354  -10946283.02749  -8511341.44547                  21134908.9564
        43.7504         26.2504
  22013634.0084   -9863152.89549  -7669783.74647                  22013629.2854
        48.7504         31.5004
  21344237.9814    1211852.44149    941676.05148                  21344235.4484
        52.0004         41.2504
  23501649.7734   -7566452.46149  -5878740.98046                  23501647.4634
        43.7504         24.7504
 04  7 28 20 14 15.0000000  0  6G 1G11G20G23G25G16
  21177514.8014   -7108004.71549  -5528901.32448                  21177512.8034
        48.7504         42.0004
  22184010.9174    1617345.91849   1257072.53147                  22184008.2904
        47.2504         34.0004
  21126543.3834  -10990265.01249  -8545613.12547                  21126539.3264
        42.5004         26.5004
  22005878.9144   -9903908.18449  -7701541.09047                  22005873.7594
        48.7504         31.7504
  21347287.0254    1227874.39549    954160.69148                  21347284.4784
        52.2504         41.5004
  23491070.2464   -7622047.72349  -5922061.89547                  23491068.2344
        43.2504         26.0004
 04  7 28 20 14 30.0000000  0  6G 1G11G20G23G25G16
  21172334.7114   -7135224.89849  -5550111.85248                  21172333.3454
        48.5004         43.0004
  22187491.8944    1635637.44549   1271325.65647                  22187489.4754
        46.7504         34.0004
  21118187.5574  -11034172.25449  -8579826.53147                  21118184.3294
        42.5004         26.5004
  21998130.8414   -9944623.22349  -7733267.06247                  21998125.4584
        48.2504         31.5004
  21350352.4414    1243982.26249    966712.27748                  21350349.7004
        51.7504         41.0004
  23480497.3324   -7677608.13349  -5965355.63346                  23480495.9394
        42.0004         25.0004
 04  7 28 20 14 45.0000000  0  6G 1G11G20G23G25G16
  21167163.8804   -7162397.10249  -5571284.98848                  21167162.6674
        49.0004         43.0004
  22190989.8894    1654019.20749   1285649.09447                  22190986.9724
        46.0004         34.0004
  21109846.8524  -11078002.08649  -8613979.67247                  21109843.5674
        42.5004         26.7504
  21990391.0664   -9985295.66849  -7764959.85947                  21990386.1214
        48.5004         32.0004
  21353434.3954    1260178.23449    979332.50848                  21353432.3594
        52.0004         41.0004
  23469932.0494   -7733130.87549  -6008620.01646                  23469929.8934
        42.2504         24.7504
 04  7 28 20 15  0.0000000  0  6G 1G11G20G23G25G16
  21162002.7604   -7189520.05549  -5592419.75848                  21162001.5474
        49.0004         43.0004
  22194504.9234    1672491.98449   1300043.44147                  22194502.3304
        46.2504         33.7504
  21101522.4564  -11121752.89149  -8648071.19547                  21101518.4834
        42.5004         26.0004
  21982659.9304  -10025924.15649  -7796618.40247                  21982654.8354
        48.5004         32.2504
  21356533.2034    1276463.36349    992022.21548                  21356530.8094
        52.0004         41.0004
  23459373.1694   -7788614.31649  -6051853.79346                  23459371.9564
        42.5004         25.2504
